Wetterdaten: aktuell Sonntag, 09.08.2020 10:46
Datum Zeit Temp. I. Temp 2m Feuchte I. Luftf 2m Luftdruck Regen Wind Richtung Richtung Sonnenschein ET UV Solar Taupunkt Windchill Windben Empfang
09.08.2020 10:46 27,0 C 24,3 C 47 % 61 % 1018,3 hPa 0,0 l/m 3,2 km/h (1 Bft) O-SO 112 1 min 0,000 mm 4,5 UV-I 703 W/m 16,3 C 24,3 C 4,8 km/h (1 Bft) 100,00 %
09.08.2020 10:45 27,0 C 24,2 C 47 % 62 % 1018,3 hPa 0,0 l/m 1,6 km/h (1 Bft) O-NO 67 1 min 0,000 mm 4,5 UV-I 701 W/m 16,4 C 24,2 C 1,6 km/h (1 Bft) 100,00 %
09.08.2020 10:44 26,9 C 24,2 C 47 % 61 % 1018,3 hPa 0,0 l/m 3,2 km/h (1 Bft) O-NO 67 1 min 0,000 mm 4,4 UV-I 696 W/m 16,2 C 24,2 C 4,8 km/h (1 Bft) 100,00 %
09.08.2020 10:43 26,9 C 24,2 C 47 % 61 % 1018,3 hPa 0,0 l/m 1,6 km/h (1 Bft) O-NO 67 1 min 0,000 mm 4,4 UV-I 696 W/m 16,2 C 24,2 C 4,8 km/h (1 Bft) 100,00 %
09.08.2020 10:42 26,9 C 24,2 C 47 % 60 % 1018,2 hPa 0,0 l/m 3,2 km/h (1 Bft) O-NO 67 1 min 0,000 mm 4,4 UV-I 691 W/m 15,9 C 24,2 C 6,4 km/h (2 Bft) 100,00 %
09.08.2020 10:41 26,9 C 24,1 C 47 % 61 % 1018,3 hPa 0,0 l/m 3,2 km/h (1 Bft) NW 315 1 min 0,000 mm 4,3 UV-I 682 W/m 16,1 C 24,1 C 4,8 km/h (1 Bft) 100,00 %
09.08.2020 10:40 26,9 C 24,1 C 47 % 61 % 1018,3 hPa 0,0 l/m 3,2 km/h (1 Bft) O 90 1 min 0,000 mm 4,3 UV-I 682 W/m 16,1 C 24,1 C 4,8 km/h (1 Bft) 100,00 %
09.08.2020 10:39 26,9 C 24,0 C 47 % 59 % 1018,3 hPa 0,0 l/m 1,6 km/h (1 Bft) O 90 1 min 0,000 mm 4,2 UV-I 682 W/m 15,5 C 24,0 C 4,8 km/h (1 Bft) 100,00 %
09.08.2020 10:38 26,8 C 24,0 C 48 % 61 % 1018,3 hPa 0,0 l/m 1,6 km/h (1 Bft) O 90 1 min 0,000 mm 4,2 UV-I 679 W/m 16,0 C 24,0 C 3,2 km/h (1 Bft) 95,65 %
09.08.2020 10:37 26,8 C 23,9 C 47 % 62 % 1018,2 hPa 0,0 l/m 1,6 km/h (1 Bft) O 90 1 min 0,000 mm 4,2 UV-I 680 W/m 16,2 C 23,9 C 3,2 km/h (1 Bft) 100,00 %
09.08.2020 10:36 26,8 C 23,9 C 47 % 62 % 1018,2 hPa 0,0 l/m 1,6 km/h (1 Bft) O 90 1 min 0,000 mm 4,2 UV-I 680 W/m 16,2 C 23,9 C 1,6 km/h (1 Bft) 100,00 %
09.08.2020 10:35 26,8 C 23,9 C 47 % 63 % 1018,3 hPa 0,0 l/m 3,2 km/h (1 Bft) O 90 1 min 0,000 mm 4,2 UV-I 682 W/m 16,4 C 23,9 C 4,8 km/h (1 Bft) 100,00 %
09.08.2020 10:34 26,8 C 23,9 C 47 % 62 % 1018,3 hPa 0,0 l/m 3,2 km/h (1 Bft) O 90 1 min 0,000 mm 4,1 UV-I 671 W/m 16,2 C 23,9 C 4,8 km/h (1 Bft) 100,00 %
09.08.2020 10:33 26,8 C 23,8 C 47 % 61 % 1018,2 hPa 0,0 l/m 3,2 km/h (1 Bft) O-NO 67 1 min 0,000 mm 4,1 UV-I 663 W/m 15,8 C 23,8 C 4,8 km/h (1 Bft) 100,00 %
09.08.2020 10:32 26,8 C 23,8 C 47 % 60 % 1018,2 hPa 0,0 l/m 4,8 km/h (1 Bft) O-NO 67 1 min 0,000 mm 4,0 UV-I 656 W/m 15,6 C 23,8 C 6,4 km/h (2 Bft) 100,00 %
09.08.2020 10:31 26,8 C 23,8 C 47 % 61 % 1018,3 hPa 0,0 l/m 4,8 km/h (1 Bft) O-NO 67 1 min 0,000 mm 4,0 UV-I 650 W/m 15,8 C 23,8 C 6,4 km/h (2 Bft) 100,00 %
09.08.2020 10:30 26,8 C 23,9 C 47 % 61 % 1018,2 hPa 0,0 l/m 3,2 km/h (1 Bft) O-NO 67 1 min 0,000 mm 4,0 UV-I 631 W/m 15,9 C 23,9 C 6,4 km/h (2 Bft) 100,00 %
09.08.2020 10:29 26,8 C 23,8 C 47 % 61 % 1018,2 hPa 0,0 l/m 3,2 km/h (1 Bft) O-NO 67 1 min 0,000 mm 4,0 UV-I 619 W/m 15,8 C 23,8 C 4,8 km/h (1 Bft) 100,00 %
09.08.2020 10:28 26,8 C 23,8 C 47 % 60 % 1018,3 hPa 0,0 l/m 4,8 km/h (1 Bft) O-NO 67 1 min 0,000 mm 4,0 UV-I 603 W/m 15,6 C 23,8 C 6,4 km/h (2 Bft) 100,00 %
09.08.2020 10:27 26,8 C 23,9 C 47 % 61 % 1018,2 hPa 0,0 l/m 3,2 km/h (1 Bft) O-NO 67 1 min 0,000 mm 4,0 UV-I 592 W/m 15,9 C 23,9 C 6,4 km/h (2 Bft) 100,00 %
09.08.2020 10:26 26,8 C 23,9 C 47 % 59 % 1018,2 hPa 0,0 l/m 3,2 km/h (1 Bft) NO 45 1 min 0,000 mm 3,9 UV-I 582 W/m 15,4 C 23,9 C 6,4 km/h (2 Bft) 100,00 %
09.08.2020 10:25 26,8 C 23,9 C 47 % 61 % 1018,2 hPa 0,0 l/m 3,2 km/h (1 Bft) NO 45 1 min 0,000 mm 3,9 UV-I 566 W/m 15,9 C 23,9 C 4,8 km/h (1 Bft) 100,00 %
09.08.2020 10:24 26,7 C 23,9 C 47 % 65 % 1018,2 hPa 0,0 l/m 3,2 km/h (1 Bft) O 90 1 min 0,000 mm 3,8 UV-I 547 W/m 16,9 C 23,9 C 4,8 km/h (1 Bft) 100,00 %
09.08.2020 10:23 26,7 C 23,9 C 47 % 61 % 1018,3 hPa 0,0 l/m 3,2 km/h (1 Bft) O-NO 67 1 min 0,000 mm 3,8 UV-I 534 W/m 15,9 C 23,9 C 4,8 km/h (1 Bft) 100,00 %
09.08.2020 10:22 26,7 C 23,9 C 47 % 61 % 1018,3 hPa 0,0 l/m 1,6 km/h (1 Bft) O-NO 67 1 min 0,000 mm 3,8 UV-I 526 W/m 15,9 C 23,9 C 3,2 km/h (1 Bft) 100,00 %
09.08.2020 10:21 26,8 C 23,9 C 47 % 62 % 1018,2 hPa 0,0 l/m 4,8 km/h (1 Bft) O-NO 67 1 min 0,000 mm 3,7 UV-I 517 W/m 16,2 C 23,9 C 6,4 km/h (2 Bft) 100,00 %
09.08.2020 10:20 26,7 C 23,9 C 47 % 60 % 1018,3 hPa 0,0 l/m 3,2 km/h (1 Bft) O 90 1 min 0,000 mm 3,8 UV-I 519 W/m 15,7 C 23,9 C 4,8 km/h (1 Bft) 100,00 %
09.08.2020 10:19 26,8 C 24,0 C 47 % 60 % 1018,3 hPa 0,0 l/m 3,2 km/h (1 Bft) NO 45 1 min 0,000 mm 3,7 UV-I 519 W/m 15,7 C 24,0 C 4,8 km/h (1 Bft) 95,65 %
09.08.2020 10:18 26,8 C 24,0 C 47 % 61 % 1018,3 hPa 0,0 l/m 1,6 km/h (1 Bft) NO 45 1 min 0,000 mm 3,6 UV-I 499 W/m 16,0 C 24,0 C 3,2 km/h (1 Bft) 100,00 %
09.08.2020 10:17 26,8 C 23,9 C 47 % 63 % 1018,3 hPa 0,0 l/m 1,6 km/h (1 Bft) NO 45 1 min 0,000 mm 3,6 UV-I 497 W/m 16,4 C 23,9 C 3,2 km/h (1 Bft) 100,00 %
09.08.2020 10:16 26,7 C 23,9 C 47 % 62 % 1018,3 hPa 0,0 l/m 1,6 km/h (1 Bft) NO 45 1 min 0,000 mm 3,6 UV-I 501 W/m 16,2 C 23,9 C 3,2 km/h (1 Bft) 95,65 %
09.08.2020 10:15 26,8 C 23,8 C 47 % 58 % 1018,2 hPa 0,0 l/m 0,0 km/h (0 Bft) NO 45 1 min 0,000 mm 3,6 UV-I 504 W/m 15,0 C 23,8 C 1,6 km/h (1 Bft) 100,00 %
09.08.2020 10:14 26,8 C 23,8 C 47 % 58 % 1018,3 hPa 0,0 l/m 3,2 km/h (1 Bft) NO 45 1 min 0,000 mm 3,6 UV-I 506 W/m 15,0 C 23,8 C 4,8 km/h (1 Bft) 95,65 %
09.08.2020 10:13 26,7 C 23,8 C 47 % 62 % 1018,3 hPa 0,0 l/m 4,8 km/h (1 Bft) S-SW 202 1 min 0,000 mm 3,6 UV-I 517 W/m 16,1 C 23,8 C 9,7 km/h (2 Bft) 100,00 %
09.08.2020 10:12 26,8 C 23,8 C 47 % 59 % 1018,3 hPa 0,0 l/m 1,6 km/h (1 Bft) S-SW 202 1 min 0,000 mm 3,5 UV-I 517 W/m 15,3 C 23,8 C 4,8 km/h (1 Bft) 100,00 %
09.08.2020 10:11 26,8 C 23,8 C 47 % 60 % 1018,3 hPa 0,0 l/m 0,0 km/h (0 Bft) S-SW 202 1 min 0,000 mm 3,5 UV-I 519 W/m 15,6 C 23,8 C 1,6 km/h (1 Bft) 100,00 %
09.08.2020 10:10 26,7 C 23,7 C 47 % 58 % 1018,3 hPa 0,0 l/m 1,6 km/h (1 Bft) S 180 1 min 0,000 mm 3,4 UV-I 520 W/m 14,9 C 23,7 C 3,2 km/h (1 Bft) 100,00 %
09.08.2020 10:09 26,7 C 23,7 C 47 % 59 % 1018,3 hPa 0,0 l/m 3,2 km/h (1 Bft) S 180 1 min 0,000 mm 3,4 UV-I 517 W/m 15,2 C 23,7 C 6,4 km/h (2 Bft) 100,00 %
09.08.2020 10:08 26,7 C 23,7 C 47 % 59 % 1018,3 hPa 0,0 l/m 3,2 km/h (1 Bft) S 180 1 min 0,000 mm 3,4 UV-I 526 W/m 15,2 C 23,7 C 4,8 km/h (1 Bft) 100,00 %
09.08.2020 10:07 26,7 C 23,7 C 47 % 59 % 1018,3 hPa 0,0 l/m 3,2 km/h (1 Bft) S-SW 202 1 min 0,000 mm 3,4 UV-I 527 W/m 15,2 C 23,7 C 6,4 km/h (2 Bft) 100,00 %
09.08.2020 10:06 26,8 C 23,7 C 47 % 61 % 1018,3 hPa 0,0 l/m 1,6 km/h (1 Bft) S-SW 202 1 min 0,000 mm 3,3 UV-I 531 W/m 15,7 C 23,7 C 3,2 km/h (1 Bft) 100,00 %
09.08.2020 10:05 26,7 C 23,6 C 47 % 62 % 1018,3 hPa 0,0 l/m 3,2 km/h (1 Bft) S-SW 202 1 min 0,000 mm 3,3 UV-I 531 W/m 15,9 C 23,6 C 4,8 km/h (1 Bft) 95,65 %
09.08.2020 10:04 26,8 C 23,6 C 47 % 59 % 1018,3 hPa 0,0 l/m 0,0 km/h (0 Bft) S-SW 202 1 min 0,000 mm 3,3 UV-I 533 W/m 15,1 C 23,6 C 3,2 km/h (1 Bft) 100,00 %
09.08.2020 10:03 26,8 C 23,6 C 47 % 60 % 1018,2 hPa 0,0 l/m 1,6 km/h (1 Bft) S-SW 202 1 min 0,000 mm 3,3 UV-I 529 W/m 15,4 C 23,6 C 3,2 km/h (1 Bft) 100,00 %
09.08.2020 10:02 26,8 C 23,4 C 47 % 62 % 1018,3 hPa 0,0 l/m 1,6 km/h (1 Bft) S-SW 202 1 min 0,000 mm 3,2 UV-I 526 W/m 15,7 C 23,4 C 3,2 km/h (1 Bft) 100,00 %
09.08.2020 10:01 26,8 C 23,4 C 47 % 61 % 1018,3 hPa 0,0 l/m 3,2 km/h (1 Bft) S-SW 202 1 min 0,000 mm 3,2 UV-I 519 W/m 15,4 C 23,4 C 4,8 km/h (1 Bft) 100,00 %
09.08.2020 10:00 26,8 C 23,3 C 47 % 59 % 1018,3 hPa 0,0 l/m 4,8 km/h (1 Bft) SW 225 1 min 0,279 mm 3,2 UV-I 512 W/m 14,8 C 23,3 C 8,0 km/h (2 Bft) 100,00 %
09.08.2020 09:59 26,8 C 23,4 C 47 % 60 % 1018,4 hPa 0,0 l/m 3,2 km/h (1 Bft) S 180 1 min 0,000 mm 3,2 UV-I 506 W/m 15,2 C 23,4 C 4,8 km/h (1 Bft) 100,00 %
09.08.2020 09:58 26,8 C 23,4 C 47 % 62 % 1018,3 hPa 0,0 l/m 3,2 km/h (1 Bft) W-SW 247 1 min 0,000 mm 3,1 UV-I 497 W/m 15,7 C 23,4 C 6,4 km/h (2 Bft) 100,00 %
09.08.2020 09:57 26,8 C 23,4 C 47 % 59 % 1018,3 hPa 0,0 l/m 1,6 km/h (1 Bft) S 180 1 min 0,000 mm 3,1 UV-I 496 W/m 14,9 C 23,4 C 3,2 km/h (1 Bft) 100,00 %
09.08.2020 09:56 26,8 C 23,3 C 47 % 60 % 1018,3 hPa 0,0 l/m 1,6 km/h (1 Bft) S 180 1 min 0,000 mm 3,1 UV-I 489 W/m 15,1 C 23,3 C 3,2 km/h (1 Bft) 100,00 %
09.08.2020 09:55 26,8 C 23,3 C 47 % 58 % 1018,3 hPa 0,0 l/m 1,6 km/h (1 Bft) S 180 1 min 0,000 mm 3,1 UV-I 483 W/m 14,6 C 23,3 C 11,3 km/h (2 Bft) 100,00 %
09.08.2020 09:54 26,8 C 23,4 C 47 % 58 % 1018,3 hPa 0,0 l/m 4,8 km/h (1 Bft) SW 225 1 min 0,000 mm 3,0 UV-I 480 W/m 14,7 C 23,4 C 11,3 km/h (2 Bft) 100,00 %
09.08.2020 09:53 26,8 C 23,5 C 47 % 59 % 1018,4 hPa 0,0 l/m 4,8 km/h (1 Bft) SW 225 1 min 0,000 mm 3,0 UV-I 476 W/m 15,0 C 23,5 C 8,0 km/h (2 Bft) 95,65 %
09.08.2020 09:52 26,8 C 23,6 C 47 % 58 % 1018,3 hPa 0,0 l/m 4,8 km/h (1 Bft) NO 45 1 min 0,000 mm 3,0 UV-I 473 W/m 14,8 C 23,6 C 6,4 km/h (2 Bft) 100,00 %
09.08.2020 09:51 26,8 C 23,5 C 47 % 60 % 1018,4 hPa 0,0 l/m 1,6 km/h (1 Bft) SO 135 1 min 0,000 mm 3,0 UV-I 468 W/m 15,3 C 23,5 C 4,8 km/h (1 Bft) 100,00 %
09.08.2020 09:50 26,8 C 23,5 C 47 % 58 % 1018,4 hPa 0,0 l/m 1,6 km/h (1 Bft) N-NO 22 1 min 0,000 mm 2,9 UV-I 462 W/m 14,7 C 23,5 C 4,8 km/h (1 Bft) 95,65 %
09.08.2020 09:49 26,8 C 23,6 C 47 % 59 % 1018,4 hPa 0,0 l/m 1,6 km/h (1 Bft) N-NO 22 1 min 0,000 mm 2,9 UV-I 457 W/m 15,1 C 23,6 C 4,8 km/h (1 Bft) 100,00 %
09.08.2020 09:48 26,8 C 23,5 C 47 % 63 % 1018,4 hPa 0,0 l/m 1,6 km/h (1 Bft) N-NO 22 1 min 0,000 mm 2,9 UV-I 452 W/m 16,0 C 23,5 C 3,2 km/h (1 Bft) 100,00 %
09.08.2020 09:47 26,8 C 23,4 C 47 % 58 % 1018,4 hPa 0,0 l/m 1,6 km/h (1 Bft) N-NO 22 1 min 0,000 mm 2,8 UV-I 450 W/m 14,7 C 23,4 C 1,6 km/h (1 Bft) 100,00 %
09.08.2020 09:46 26,8 C 23,4 C 47 % 59 % 1018,3 hPa 0,0 l/m 3,2 km/h (1 Bft) N-NO 22 1 min 0,000 mm 2,8 UV-I 446 W/m 14,9 C 23,4 C 4,8 km/h (1 Bft) 100,00 %
09.08.2020 09:45 26,8 C 23,4 C 46 % 64 % 1018,3 hPa 0,0 l/m 1,6 km/h (1 Bft) NO 45 1 min 0,000 mm 2,8 UV-I 445 W/m 16,2 C 23,4 C 3,2 km/h (1 Bft) 95,65 %
09.08.2020 09:44 26,8 C 23,4 C 46 % 64 % 1018,4 hPa 0,0 l/m 0,0 km/h (0 Bft) NO 45 1 min 0,000 mm 2,8 UV-I 445 W/m 16,2 C 23,4 C 1,6 km/h (1 Bft) 100,00 %
09.08.2020 09:43 26,8 C 23,4 C 46 % 60 % 1018,4 hPa 0,0 l/m 3,2 km/h (1 Bft) NO 45 1 min 0,000 mm 2,7 UV-I 439 W/m 15,2 C 23,4 C 6,4 km/h (2 Bft) 91,30 %
09.08.2020 09:42 26,8 C 23,4 C 47 % 61 % 1018,4 hPa 0,0 l/m 3,2 km/h (1 Bft) N-NW 337 1 min 0,000 mm 2,7 UV-I 439 W/m 15,4 C 23,4 C 4,8 km/h (1 Bft) 100,00 %
09.08.2020 09:41 26,8 C 23,3 C 47 % 59 % 1018,5 hPa 0,0 l/m 1,6 km/h (1 Bft) NO 45 1 min 0,000 mm 2,7 UV-I 439 W/m 14,8 C 23,3 C 3,2 km/h (1 Bft) 95,65 %
09.08.2020 09:40 26,8 C 23,2 C 46 % 62 % 1018,4 hPa 0,0 l/m 3,2 km/h (1 Bft) NO 45 1 min 0,000 mm 2,7 UV-I 438 W/m 15,5 C 23,2 C 6,4 km/h (2 Bft) 100,00 %
09.08.2020 09:39 26,8 C 23,2 C 46 % 61 % 1018,5 hPa 0,0 l/m 1,6 km/h (1 Bft) S-SW 202 1 min 0,000 mm 2,6 UV-I 436 W/m 15,3 C 23,2 C 4,8 km/h (1 Bft) 100,00 %
09.08.2020 09:38 26,8 C 23,2 C 46 % 63 % 1018,5 hPa 0,0 l/m 1,6 km/h (1 Bft) S-SW 202 1 min 0,000 mm 2,6 UV-I 434 W/m 15,8 C 23,2 C 3,2 km/h (1 Bft) 100,00 %
09.08.2020 09:37 26,8 C 23,2 C 46 % 62 % 1018,4 hPa 0,0 l/m 1,6 km/h (1 Bft) S-SW 202 1 min 0,000 mm 2,6 UV-I 438 W/m 15,5 C 23,2 C 3,2 km/h (1 Bft) 100,00 %
09.08.2020 09:36 26,8 C 23,3 C 47 % 62 % 1018,4 hPa 0,0 l/m 1,6 km/h (1 Bft) S-SW 202 1 min 0,000 mm 2,6 UV-I 438 W/m 15,6 C 23,3 C 3,2 km/h (1 Bft) 95,65 %
09.08.2020 09:35 26,8 C 23,2 C 46 % 59 % 1018,5 hPa 0,0 l/m 3,2 km/h (1 Bft) S-SW 202 1 min 0,000 mm 2,5 UV-I 438 W/m 14,7 C 23,2 C 4,8 km/h (1 Bft) 100,00 %
09.08.2020 09:34 26,8 C 23,2 C 46 % 59 % 1018,4 hPa 0,0 l/m 3,2 km/h (1 Bft) W-SW 247 1 min 0,000 mm 2,5 UV-I 438 W/m 14,7 C 23,2 C 6,4 km/h (2 Bft) 95,65 %
09.08.2020 09:33 26,8 C 23,3 C 47 % 58 % 1018,5 hPa 0,0 l/m 3,2 km/h (1 Bft) S-SW 202 1 min 0,000 mm 2,4 UV-I 438 W/m 14,6 C 23,3 C 6,4 km/h (2 Bft) 95,65 %
09.08.2020 09:32 26,8 C 23,3 C 46 % 60 % 1018,4 hPa 0,0 l/m 1,6 km/h (1 Bft) S-SW 202 1 min 0,000 mm 2,4 UV-I 436 W/m 15,1 C 23,3 C 4,8 km/h (1 Bft) 100,00 %
09.08.2020 09:31 26,8 C 23,3 C 47 % 60 % 1018,5 hPa 0,0 l/m 1,6 km/h (1 Bft) S 180 1 min 0,000 mm 2,4 UV-I 434 W/m 15,1 C 23,3 C 3,2 km/h (1 Bft) 100,00 %
09.08.2020 09:30 26,8 C 23,2 C 46 % 59 % 1018,5 hPa 0,0 l/m 1,6 km/h (1 Bft) S 180 1 min 0,000 mm 2,4 UV-I 434 W/m 14,7 C 23,2 C 3,2 km/h (1 Bft) 100,00 %
09.08.2020 09:29 26,8 C 23,2 C 46 % 60 % 1018,4 hPa 0,0 l/m 1,6 km/h (1 Bft) S-SO 157 1 min 0,000 mm 2,4 UV-I 436 W/m 15,0 C 23,2 C 3,2 km/h (1 Bft) 100,00 %
09.08.2020 09:28 26,8 C 23,3 C 46 % 59 % 1018,5 hPa 0,0 l/m 1,6 km/h (1 Bft) S-SO 157 1 min 0,000 mm 2,3 UV-I 439 W/m 14,8 C 23,3 C 4,8 km/h (1 Bft) 100,00 %
09.08.2020 09:27 26,8 C 23,3 C 46 % 62 % 1018,4 hPa 0,0 l/m 1,6 km/h (1 Bft) O-NO 67 1 min 0,000 mm 2,3 UV-I 439 W/m 15,6 C 23,3 C 3,2 km/h (1 Bft) 100,00 %
09.08.2020 09:26 26,8 C 23,2 C 46 % 57 % 1018,3 hPa 0,0 l/m 1,6 km/h (1 Bft) O-NO 67 1 min 0,000 mm 2,3 UV-I 441 W/m 14,2 C 23,2 C 3,2 km/h (1 Bft) 100,00 %
09.08.2020 09:25 26,8 C 23,2 C 46 % 59 % 1018,3 hPa 0,0 l/m 1,6 km/h (1 Bft) O-NO 67 1 min 0,000 mm 2,3 UV-I 443 W/m 14,7 C 23,2 C 3,2 km/h (1 Bft) 100,00 %
09.08.2020 09:24 26,8 C 23,2 C 47 % 58 % 1018,4 hPa 0,0 l/m 3,2 km/h (1 Bft) O-NO 67 1 min 0,000 mm 2,2 UV-I 446 W/m 14,5 C 23,2 C 4,8 km/h (1 Bft) 100,00 %
09.08.2020 09:23 26,8 C 23,2 C 47 % 59 % 1018,4 hPa 0,0 l/m 1,6 km/h (1 Bft) N-NW 337 1 min 0,000 mm 2,2 UV-I 448 W/m 14,7 C 23,2 C 4,8 km/h (1 Bft) 100,00 %
09.08.2020 09:22 26,8 C 23,1 C 47 % 59 % 1018,4 hPa 0,0 l/m 1,6 km/h (1 Bft) N-NW 337 1 min 0,000 mm 2,2 UV-I 450 W/m 14,6 C 23,1 C 1,6 km/h (1 Bft) 100,00 %
09.08.2020 09:21 26,8 C 23,1 C 47 % 59 % 1018,4 hPa 0,0 l/m 3,2 km/h (1 Bft) O-SO 112 1 min 0,000 mm 2,2 UV-I 452 W/m 14,6 C 23,1 C 6,4 km/h (2 Bft) 100,00 %
09.08.2020 09:20 26,7 C 23,1 C 47 % 61 % 1018,5 hPa 0,0 l/m 1,6 km/h (1 Bft) S-SW 202 1 min 0,000 mm 2,1 UV-I 450 W/m 15,2 C 23,1 C 3,2 km/h (1 Bft) 100,00 %
09.08.2020 09:19 26,7 C 23,1 C 47 % 58 % 1018,4 hPa 0,0 l/m 1,6 km/h (1 Bft) S-SW 202 1 min 0,000 mm 2,1 UV-I 448 W/m 14,4 C 23,1 C 4,8 km/h (1 Bft) 100,00 %
09.08.2020 09:18 26,7 C 23,0 C 47 % 59 % 1018,5 hPa 0,0 l/m 3,2 km/h (1 Bft) SW 225 1 min 0,000 mm 2,1 UV-I 452 W/m 14,5 C 23,0 C 6,4 km/h (2 Bft) 100,00 %
09.08.2020 09:17 26,7 C 23,1 C 47 % 60 % 1018,4 hPa 0,0 l/m 4,8 km/h (1 Bft) O 90 1 min 0,000 mm 2,1 UV-I 448 W/m 14,9 C 23,1 C 8,0 km/h (2 Bft) 95,65 %
09.08.2020 09:16 26,7 C 23,1 C 47 % 61 % 1018,4 hPa 0,0 l/m 1,6 km/h (1 Bft) O 90 1 min 0,000 mm 2,1 UV-I 446 W/m 15,2 C 23,1 C 3,2 km/h (1 Bft) 95,65 %
09.08.2020 09:15 26,7 C 23,1 C 47 % 59 % 1018,4 hPa 0,0 l/m 3,2 km/h (1 Bft) S 180 1 min 0,000 mm 2,0 UV-I 448 W/m 14,6 C 23,1 C 4,8 km/h (1 Bft) 100,00 %
09.08.2020 09:14 26,7 C 23,2 C 47 % 60 % 1018,4 hPa 0,0 l/m 1,6 km/h (1 Bft) O 90 1 min 0,000 mm 2,0 UV-I 450 W/m 15,0 C 23,2 C 3,2 km/h (1 Bft) 95,65 %
09.08.2020 09:13 26,7 C 23,2 C 47 % 58 % 1018,3 hPa 0,0 l/m 3,2 km/h (1 Bft) O-SO 112 1 min 0,000 mm 2,0 UV-I 448 W/m 14,5 C 23,2 C 6,4 km/h (2 Bft) 100,00 %
09.08.2020 09:12 26,7 C 23,2 C 47 % 60 % 1018,4 hPa 0,0 l/m 3,2 km/h (1 Bft) SO 135 1 min 0,000 mm 2,0 UV-I 450 W/m 15,0 C 23,2 C 8,0 km/h (2 Bft) 95,65 %
09.08.2020 09:11 26,7 C 23,1 C 47 % 59 % 1018,4 hPa 0,0 l/m 1,6 km/h (1 Bft) O-SO 112 1 min 0,000 mm 1,9 UV-I 450 W/m 14,6 C 23,1 C 3,2 km/h (1 Bft) 100,00 %
09.08.2020 09:10 26,7 C 23,1 C 47 % 59 % 1018,4 hPa 0,0 l/m 1,6 km/h (1 Bft) O-SO 112 1 min 0,000 mm 1,9 UV-I 450 W/m 14,6 C 23,1 C 3,2 km/h (1 Bft) 95,65 %
09.08.2020 09:09 26,8 C 23,1 C 47 % 59 % 1018,4 hPa 0,0 l/m 1,6 km/h (1 Bft) O-SO 112 1 min 0,000 mm 1,9 UV-I 450 W/m 14,6 C 23,1 C 3,2 km/h (1 Bft) 100,00 %
09.08.2020 09:08 26,7 C 23,0 C 47 % 59 % 1018,3 hPa 0,0 l/m 3,2 km/h (1 Bft) NO 45 1 min 0,000 mm 1,9 UV-I 446 W/m 14,5 C 23,0 C 6,4 km/h (2 Bft) 100,00 %
09.08.2020 09:07 26,7 C 22,9 C 47 % 60 % 1018,3 hPa 0,0 l/m 4,8 km/h (1 Bft) N-NO 22 1 min 0,000 mm 1,9 UV-I 446 W/m 14,7 C 22,9 C 6,4 km/h (2 Bft) 100,00 %
09.08.2020 09:06 26,7 C 22,9 C 47 % 62 % 1018,3 hPa 0,0 l/m 1,6 km/h (1 Bft) SW 225 1 min 0,000 mm 1,8 UV-I 446 W/m 15,2 C 22,9 C 4,8 km/h (1 Bft) 100,00 %
09.08.2020 09:05 26,7 C 22,9 C 47 % 63 % 1018,3 hPa 0,0 l/m 1,6 km/h (1 Bft) S-SO 157 1 min 0,000 mm 1,8 UV-I 443 W/m 15,5 C 22,9 C 3,2 km/h (1 Bft) 95,65 %
09.08.2020 09:04 26,7 C 22,9 C 47 % 59 % 1018,4 hPa 0,0 l/m 0,0 km/h (0 Bft) S-SO 157 1 min 0,000 mm 1,8 UV-I 441 W/m 14,5 C 22,9 C 1,6 km/h (1 Bft) 100,00 %
09.08.2020 09:03 26,7 C 22,9 C 47 % 59 % 1018,4 hPa 0,0 l/m 3,2 km/h (1 Bft) S-SO 157 1 min 0,000 mm 1,8 UV-I 438 W/m 14,5 C 22,9 C 9,7 km/h (2 Bft) 100,00 %
09.08.2020 09:02 26,7 C 22,9 C 47 % 59 % 1018,4 hPa 0,0 l/m 3,2 km/h (1 Bft) S-SO 157 1 min 0,000 mm 1,7 UV-I 432 W/m 14,5 C 22,9 C 6,4 km/h (2 Bft) 95,65 %
09.08.2020 09:01 26,7 C 22,9 C 47 % 60 % 1018,4 hPa 0,0 l/m 1,6 km/h (1 Bft) O 90 1 min 0,000 mm 1,7 UV-I 429 W/m 14,7 C 22,9 C 3,2 km/h (1 Bft) 100,00 %
09.08.2020 09:00 26,7 C 22,9 C 47 % 59 % 1018,4 hPa 0,0 l/m 3,2 km/h (1 Bft) S 180 1 min 0,229 mm 1,7 UV-I 427 W/m 14,5 C 22,9 C 6,4 km/h (2 Bft) 95,65 %
09.08.2020 08:59 26,7 C 22,8 C 47 % 59 % 1018,4 hPa 0,0 l/m 1,6 km/h (1 Bft) W-SW 247 1 min 0,000 mm 1,7 UV-I 425 W/m 14,4 C 22,8 C 3,2 km/h (1 Bft) 100,00 %
09.08.2020 08:58 26,7 C 22,8 C 47 % 60 % 1018,4 hPa 0,0 l/m 1,6 km/h (1 Bft) W-SW 247 1 min 0,000 mm 1,6 UV-I 422 W/m 14,6 C 22,8 C 3,2 km/h (1 Bft) 95,65 %
09.08.2020 08:57 26,7 C 22,8 C 47 % 59 % 1018,4 hPa 0,0 l/m 1,6 km/h (1 Bft) W-SW 247 1 min 0,000 mm 1,6 UV-I 418 W/m 14,4 C 22,8 C 3,2 km/h (1 Bft) 100,00 %
09.08.2020 08:56 26,7 C 22,8 C 47 % 62 % 1018,4 hPa 0,0 l/m 1,6 km/h (1 Bft) W-SW 247 1 min 0,000 mm 1,6 UV-I 413 W/m 15,1 C 22,8 C 3,2 km/h (1 Bft) 100,00 %
09.08.2020 08:55 26,7 C 22,8 C 47 % 62 % 1018,4 hPa 0,0 l/m 1,6 km/h (1 Bft) W-SW 247 1 min 0,000 mm 1,6 UV-I 413 W/m 15,1 C 22,8 C 3,2 km/h (1 Bft) 100,00 %
09.08.2020 08:54 26,7 C 22,8 C 47 % 61 % 1018,4 hPa 0,0 l/m 1,6 km/h (1 Bft) W-SW 247 1 min 0,000 mm 1,6 UV-I 410 W/m 14,9 C 22,8 C 3,2 km/h (1 Bft) 100,00 %
09.08.2020 08:53 26,7 C 22,8 C 47 % 60 % 1018,5 hPa 0,0 l/m 1,6 km/h (1 Bft) W-SW 247 1 min 0,000 mm 1,6 UV-I 408 W/m 14,6 C 22,8 C 3,2 km/h (1 Bft) 100,00 %
09.08.2020 08:52 26,7 C 22,8 C 47 % 60 % 1018,4 hPa 0,0 l/m 1,6 km/h (1 Bft) W-SW 247 1 min 0,000 mm 1,5 UV-I 406 W/m 14,6 C 22,8 C 3,2 km/h (1 Bft) 100,00 %
09.08.2020 08:51 26,7 C 22,8 C 47 % 60 % 1018,4 hPa 0,0 l/m 1,6 km/h (1 Bft) W-SW 247 1 min 0,000 mm 1,5 UV-I 403 W/m 14,6 C 22,8 C 3,2 km/h (1 Bft) 100,00 %
09.08.2020 08:50 26,7 C 22,8 C 47 % 60 % 1018,5 hPa 0,0 l/m 1,6 km/h (1 Bft) W-SW 247 1 min 0,000 mm 1,5 UV-I 399 W/m 14,6 C 22,8 C 3,2 km/h (1 Bft) 100,00 %
09.08.2020 08:49 26,7 C 22,8 C 47 % 58 % 1018,5 hPa 0,0 l/m 1,6 km/h (1 Bft) W-SW 247 1 min 0,000 mm 1,5 UV-I 399 W/m 14,1 C 22,8 C 3,2 km/h (1 Bft) 100,00 %
09.08.2020 08:48 26,7 C 22,8 C 47 % 60 % 1018,5 hPa 0,0 l/m 3,2 km/h (1 Bft) W-SW 247 1 min 0,000 mm 1,5 UV-I 397 W/m 14,6 C 22,8 C 6,4 km/h (2 Bft) 100,00 %
09.08.2020 08:47 26,8 C 22,8 C 47 % 60 % 1018,5 hPa 0,0 l/m 1,6 km/h (1 Bft) S-SW 202 1 min 0,000 mm 1,5 UV-I 396 W/m 14,6 C 22,8 C 4,8 km/h (1 Bft) 100,00 %
09.08.2020 08:46 26,7 C 22,8 C 47 % 58 % 1018,5 hPa 0,0 l/m 1,6 km/h (1 Bft) S-SW 202 1 min 0,000 mm 1,4 UV-I 394 W/m 14,1 C 22,8 C 3,2 km/h (1 Bft) 100,00 %
09.08.2020 08:45 26,7 C 22,8 C 47 % 61 % 1018,4 hPa 0,0 l/m 1,6 km/h (1 Bft) S-SW 202 1 min 0,000 mm 1,4 UV-I 388 W/m 14,9 C 22,8 C 4,8 km/h (1 Bft) 100,00 %
09.08.2020 08:44 26,7 C 22,7 C 47 % 60 % 1018,4 hPa 0,0 l/m 3,2 km/h (1 Bft) SO 135 1 min 0,000 mm 1,4 UV-I 387 W/m 14,5 C 22,7 C 4,8 km/h (1 Bft) 100,00 %
09.08.2020 08:43 26,8 C 22,6 C 47 % 59 % 1018,4 hPa 0,0 l/m 3,2 km/h (1 Bft) NO 45 1 min 0,000 mm 1,4 UV-I 383 W/m 14,2 C 22,6 C 6,4 km/h (2 Bft) 100,00 %
09.08.2020 08:42 26,8 C 22,6 C 47 % 63 % 1018,4 hPa 0,0 l/m 1,6 km/h (1 Bft) NO 45 1 min 0,000 mm 1,4 UV-I 381 W/m 15,2 C 22,6 C 4,8 km/h (1 Bft) 100,00 %
09.08.2020 08:41 26,7 C 22,6 C 47 % 61 % 1018,4 hPa 0,0 l/m 1,6 km/h (1 Bft) NO 45 1 min 0,000 mm 1,4 UV-I 378 W/m 14,7 C 22,6 C 3,2 km/h (1 Bft) 100,00 %
09.08.2020 08:40 26,7 C 22,5 C 47 % 62 % 1018,5 hPa 0,0 l/m 1,6 km/h (1 Bft) NO 45 1 min 0,000 mm 1,3 UV-I 376 W/m 14,8 C 22,5 C 3,2 km/h (1 Bft) 100,00 %
09.08.2020 08:39 26,7 C 22,5 C 47 % 61 % 1018,5 hPa 0,0 l/m 1,6 km/h (1 Bft) NO 45 1 min 0,000 mm 1,3 UV-I 369 W/m 14,6 C 22,5 C 4,8 km/h (1 Bft) 100,00 %
09.08.2020 08:38 26,7 C 22,4 C 47 % 61 % 1018,4 hPa 0,0 l/m 0,0 km/h (0 Bft) W 270 1 min 0,000 mm 1,3 UV-I 366 W/m 14,5 C 22,4 C 1,6 km/h (1 Bft) 100,00 %
09.08.2020 08:37 26,8 C 22,4 C 46 % 63 % 1018,5 hPa 0,0 l/m 1,6 km/h (1 Bft) W 270 1 min 0,000 mm 1,3 UV-I 364 W/m 15,0 C 22,4 C 3,2 km/h (1 Bft) 100,00 %
09.08.2020 08:36 26,8 C 22,3 C 47 % 61 % 1018,4 hPa 0,0 l/m 1,6 km/h (1 Bft) NO 45 1 min 0,000 mm 1,3 UV-I 362 W/m 14,4 C 22,3 C 9,7 km/h (2 Bft) 100,00 %
09.08.2020 08:35 26,8 C 22,2 C 47 % 61 % 1018,4 hPa 0,0 l/m 4,8 km/h (1 Bft) NO 45 1 min 0,000 mm 1,3 UV-I 359 W/m 14,3 C 22,2 C 9,7 km/h (2 Bft) 100,00 %
09.08.2020 08:34 26,8 C 22,2 C 46 % 64 % 1018,4 hPa 0,0 l/m 1,6 km/h (1 Bft) W 270 1 min 0,000 mm 1,2 UV-I 355 W/m 15,1 C 22,2 C 3,2 km/h (1 Bft) 100,00 %
09.08.2020 08:33 26,8 C 22,2 C 46 % 64 % 1018,4 hPa 0,0 l/m 1,6 km/h (1 Bft) W 270 1 min 0,000 mm 1,2 UV-I 348 W/m 15,1 C 22,2 C 3,2 km/h (1 Bft) 100,00 %
09.08.2020 08:32 26,8 C 22,2 C 46 % 63 % 1018,4 hPa 0,0 l/m 1,6 km/h (1 Bft) W 270 1 min 0,000 mm 1,2 UV-I 348 W/m 14,8 C 22,2 C 1,6 km/h (1 Bft) 100,00 %
09.08.2020 08:31 26,8 C 22,3 C 46 % 63 % 1018,4 hPa 0,0 l/m 1,6 km/h (1 Bft) W 270 1 min 0,000 mm 1,2 UV-I 346 W/m 14,9 C 22,3 C 3,2 km/h (1 Bft) 100,00 %
09.08.2020 08:30 26,8 C 22,3 C 46 % 62 % 1018,5 hPa 0,0 l/m 0,0 km/h (0 Bft) W 270 1 min 0,000 mm 1,2 UV-I 348 W/m 14,7 C 22,3 C 1,6 km/h (1 Bft) 100,00 %
09.08.2020 08:29 26,8 C 22,2 C 46 % 62 % 1018,4 hPa 0,0 l/m 1,6 km/h (1 Bft) W 270 1 min 0,000 mm 1,2 UV-I 346 W/m 14,6 C 22,2 C 3,2 km/h (1 Bft) 100,00 %
09.08.2020 08:28 26,8 C 22,2 C 46 % 65 % 1018,4 hPa 0,0 l/m 1,6 km/h (1 Bft) W 270 1 min 0,000 mm 1,1 UV-I 345 W/m 15,3 C 22,2 C 3,2 km/h (1 Bft) 100,00 %
09.08.2020 08:27 26,8 C 22,2 C 46 % 62 % 1018,4 hPa 0,0 l/m 1,6 km/h (1 Bft) W 270 1 min 0,000 mm 1,1 UV-I 339 W/m 14,6 C 22,2 C 3,2 km/h (1 Bft) 100,00 %
09.08.2020 08:26 26,8 C 22,1 C 46 % 63 % 1018,4 hPa 0,0 l/m 1,6 km/h (1 Bft) S-SW 202 1 min 0,000 mm 1,1 UV-I 336 W/m 14,7 C 22,1 C 4,8 km/h (1 Bft) 100,00 %
09.08.2020 08:25 26,8 C 22,2 C 46 % 63 % 1018,4 hPa 0,0 l/m 0,0 km/h (0 Bft) S-SW 202 1 min 0,000 mm 1,1 UV-I 334 W/m 14,8 C 22,2 C 1,6 km/h (1 Bft) 100,00 %
09.08.2020 08:24 26,8 C 22,2 C 46 % 62 % 1018,4 hPa 0,0 l/m 1,6 km/h (1 Bft) S-SW 202 1 min 0,000 mm 1,1 UV-I 329 W/m 14,6 C 22,2 C 3,2 km/h (1 Bft) 95,65 %
09.08.2020 08:23 26,8 C 22,1 C 46 % 62 % 1018,4 hPa 0,0 l/m 1,6 km/h (1 Bft) S 180 1 min 0,000 mm 1,1 UV-I 329 W/m 14,5 C 22,1 C 3,2 km/h (1 Bft) 100,00 %
09.08.2020 08:22 26,8 C 22,1 C 46 % 62 % 1018,5 hPa 0,0 l/m 3,2 km/h (1 Bft) S 180 1 min 0,000 mm 1,0 UV-I 327 W/m 14,5 C 22,1 C 6,4 km/h (2 Bft) 100,00 %
09.08.2020 08:21 26,8 C 22,1 C 46 % 62 % 1018,5 hPa 0,0 l/m 3,2 km/h (1 Bft) O 90 1 min 0,000 mm 1,0 UV-I 323 W/m 14,5 C 22,1 C 4,8 km/h (1 Bft) 95,65 %
09.08.2020 08:20 26,8 C 22,0 C 46 % 63 % 1018,4 hPa 0,0 l/m 1,6 km/h (1 Bft) O 90 1 min 0,000 mm 1,0 UV-I 320 W/m 14,6 C 22,0 C 3,2 km/h (1 Bft) 100,00 %
09.08.2020 08:19 26,8 C 21,9 C 46 % 63 % 1018,4 hPa 0,0 l/m 3,2 km/h (1 Bft) O 90 1 min 0,000 mm 1,0 UV-I 316 W/m 14,5 C 21,9 C 4,8 km/h (1 Bft) 95,65 %
09.08.2020 08:18 26,8 C 21,9 C 46 % 63 % 1018,4 hPa 0,0 l/m 1,6 km/h (1 Bft) S-SO 157 1 min 0,000 mm 1,0 UV-I 315 W/m 14,5 C 21,9 C 6,4 km/h (2 Bft) 100,00 %
09.08.2020 08:17 26,8 C 21,9 C 46 % 62 % 1018,5 hPa 0,0 l/m 4,8 km/h (1 Bft) S-SO 157 1 min 0,000 mm 0,9 UV-I 311 W/m 14,3 C 21,9 C 6,4 km/h (2 Bft) 100,00 %
09.08.2020 08:16 26,8 C 21,8 C 46 % 63 % 1018,5 hPa 0,0 l/m 1,6 km/h (1 Bft) O 90 1 min 0,000 mm 0,9 UV-I 308 W/m 14,4 C 21,8 C 3,2 km/h (1 Bft) 100,00 %
09.08.2020 08:15 26,8 C 21,8 C 46 % 62 % 1018,4 hPa 0,0 l/m 1,6 km/h (1 Bft) O 90 1 min 0,000 mm 0,9 UV-I 302 W/m 14,2 C 21,8 C 3,2 km/h (1 Bft) 100,00 %
09.08.2020 08:14 26,8 C 21,7 C 46 % 63 % 1018,5 hPa 0,0 l/m 1,6 km/h (1 Bft) O 90 1 min 0,000 mm 0,9 UV-I 301 W/m 14,3 C 21,7 C 1,6 km/h (1 Bft) 100,00 %
09.08.2020 08:13 26,8 C 21,7 C 46 % 64 % 1018,5 hPa 0,0 l/m 0,0 km/h (0 Bft) O 90 1 min 0,000 mm 0,9 UV-I 297 W/m 14,6 C 21,7 C 1,6 km/h (1 Bft) 100,00 %
09.08.2020 08:12 26,8 C 21,7 C 46 % 64 % 1018,5 hPa 0,0 l/m 1,6 km/h (1 Bft) O 90 1 min 0,000 mm 0,9 UV-I 295 W/m 14,6 C 21,7 C 3,2 km/h (1 Bft) 91,30 %
09.08.2020 08:11 26,8 C 21,7 C 46 % 63 % 1018,5 hPa 0,0 l/m 1,6 km/h (1 Bft) O 90 1 min 0,000 mm 0,8 UV-I 292 W/m 14,3 C 21,7 C 3,2 km/h (1 Bft) 100,00 %
09.08.2020 08:10 26,8 C 21,7 C 46 % 63 % 1018,4 hPa 0,0 l/m 1,6 km/h (1 Bft) O 90 1 min 0,000 mm 0,8 UV-I 287 W/m 14,3 C 21,7 C 3,2 km/h (1 Bft) 100,00 %
09.08.2020 08:09 26,8 C 21,6 C 46 % 63 % 1018,4 hPa 0,0 l/m 1,6 km/h (1 Bft) O 90 1 min 0,000 mm 0,8 UV-I 283 W/m 14,2 C 21,6 C 3,2 km/h (1 Bft) 95,65 %
09.08.2020 08:08 26,8 C 21,7 C 46 % 64 % 1018,5 hPa 0,0 l/m 1,6 km/h (1 Bft) O 90 1 min 0,000 mm 0,8 UV-I 279 W/m 14,6 C 21,7 C 4,8 km/h (1 Bft) 100,00 %
09.08.2020 08:07 26,8 C 21,6 C 46 % 63 % 1018,5 hPa 0,0 l/m 1,6 km/h (1 Bft) O 90 1 min 0,000 mm 0,8 UV-I 278 W/m 14,2 C 21,6 C 3,2 km/h (1 Bft) 95,65 %
09.08.2020 08:06 26,8 C 21,6 C 46 % 64 % 1018,5 hPa 0,0 l/m 1,6 km/h (1 Bft) O 90 1 min 0,000 mm 0,8 UV-I 276 W/m 14,5 C 21,6 C 1,6 km/h (1 Bft) 100,00 %
09.08.2020 08:05 26,9 C 21,6 C 46 % 63 % 1018,5 hPa 0,0 l/m 1,6 km/h (1 Bft) O 90 1 min 0,000 mm 0,8 UV-I 274 W/m 14,2 C 21,6 C 1,6 km/h (1 Bft) 100,00 %
09.08.2020 08:04 26,9 C 21,6 C 45 % 63 % 1018,5 hPa 0,0 l/m 1,6 km/h (1 Bft) O 90 1 min 0,000 mm 0,8 UV-I 267 W/m 14,2 C 21,6 C 3,2 km/h (1 Bft) 95,65 %
09.08.2020 08:03 26,9 C 21,6 C 45 % 63 % 1018,5 hPa 0,0 l/m 3,2 km/h (1 Bft) O 90 1 min 0,000 mm 0,7 UV-I 265 W/m 14,2 C 21,6 C 4,8 km/h (1 Bft) 100,00 %
09.08.2020 08:02 26,9 C 21,4 C 45 % 63 % 1018,5 hPa 0,0 l/m 1,6 km/h (1 Bft) NO 45 1 min 0,000 mm 0,7 UV-I 265 W/m 14,1 C 21,4 C 3,2 km/h (1 Bft) 100,00 %
09.08.2020 08:01 26,9 C 21,3 C 45 % 64 % 1018,6 hPa 0,0 l/m 1,6 km/h (1 Bft) NO 45 1 min 0,000 mm 0,7 UV-I 262 W/m 14,2 C 21,3 C 3,2 km/h (1 Bft) 100,00 %
09.08.2020 08:00 26,9 C 21,3 C 45 % 63 % 1018,5 hPa 0,0 l/m 3,2 km/h (1 Bft) NO 45 1 min 0,051 mm 0,7 UV-I 258 W/m 14,0 C 21,3 C 3,2 km/h (1 Bft) 100,00 %
09.08.2020 07:59 26,9 C 21,2 C 45 % 63 % 1018,5 hPa 0,0 l/m 1,6 km/h (1 Bft) O-SO 112 1 min 0,000 mm 0,7 UV-I 257 W/m 13,9 C 21,2 C 4,8 km/h (1 Bft) 100,00 %
09.08.2020 07:58 26,9 C 21,1 C 45 % 64 % 1018,5 hPa 0,0 l/m 1,6 km/h (1 Bft) O-SO 112 1 min 0,000 mm 0,7 UV-I 251 W/m 14,0 C 21,1 C 1,6 km/h (1 Bft) 100,00 %
09.08.2020 07:57 26,9 C 21,1 C 45 % 64 % 1018,5 hPa 0,0 l/m 1,6 km/h (1 Bft) O-SO 112 1 min 0,000 mm 0,7 UV-I 248 W/m 14,0 C 21,1 C 3,2 km/h (1 Bft) 100,00 %
09.08.2020 07:56 26,9 C 21,0 C 45 % 63 % 1018,6 hPa 0,0 l/m 1,6 km/h (1 Bft) O-SO 112 1 min 0,000 mm 0,7 UV-I 246 W/m 13,7 C 21,0 C 3,2 km/h (1 Bft) 100,00 %
09.08.2020 07:55 26,9 C 20,9 C 45 % 64 % 1018,5 hPa 0,0 l/m 1,6 km/h (1 Bft) O-SO 112 1 min 0,000 mm 0,6 UV-I 243 W/m 13,8 C 20,9 C 1,6 km/h (1 Bft) 95,65 %
09.08.2020 07:54 26,9 C 20,9 C 45 % 64 % 1018,6 hPa 0,0 l/m 1,6 km/h (1 Bft) O-SO 112 1 min 0,000 mm 0,6 UV-I 241 W/m 13,8 C 20,9 C 1,6 km/h (1 Bft) 100,00 %
09.08.2020 07:53 26,9 C 20,8 C 45 % 64 % 1018,6 hPa 0,0 l/m 1,6 km/h (1 Bft) O-SO 112 1 min 0,000 mm 0,6 UV-I 241 W/m 13,7 C 20,8 C 1,6 km/h (1 Bft) 100,00 %
09.08.2020 07:52 26,9 C 20,8 C 45 % 64 % 1018,5 hPa 0,0 l/m 0,0 km/h (0 Bft) O-SO 112 1 min 0,000 mm 0,6 UV-I 236 W/m 13,7 C 20,8 C 1,6 km/h (1 Bft) 91,30 %
09.08.2020 07:51 26,9 C 20,7 C 45 % 64 % 1018,5 hPa 0,0 l/m 1,6 km/h (1 Bft) O-SO 112 1 min 0,000 mm 0,6 UV-I 232 W/m 13,6 C 20,7 C 3,2 km/h (1 Bft) 100,00 %
09.08.2020 07:50 26,9 C 20,6 C 45 % 65 % 1018,5 hPa 0,0 l/m 0,0 km/h (0 Bft) O-SO 112 1 min 0,000 mm 0,6 UV-I 229 W/m 13,8 C 20,6 C 3,2 km/h (1 Bft) 100,00 %
09.08.2020 07:49 26,9 C 20,5 C 45 % 64 % 1018,6 hPa 0,0 l/m 1,6 km/h (1 Bft) O-SO 112 1 min 0,000 mm 0,6 UV-I 225 W/m 13,5 C 20,5 C 3,2 km/h (1 Bft) 100,00 %
09.08.2020 07:48 26,9 C 20,4 C 45 % 65 % 1018,5 hPa 0,0 l/m 1,6 km/h (1 Bft) O-SO 112 1 min 0,000 mm 0,6 UV-I 218 W/m 13,6 C 20,4 C 3,2 km/h (1 Bft) 100,00 %
09.08.2020 07:47 26,9 C 20,4 C 45 % 65 % 1018,6 hPa 0,0 l/m 1,6 km/h (1 Bft) O-SO 112 1 min 0,000 mm 0,5 UV-I 195 W/m 13,6 C 20,4 C 3,2 km/h (1 Bft) 100,00 %
09.08.2020 07:46 26,9 C 20,3 C 45 % 65 % 1018,6 hPa 0,0 l/m 1,6 km/h (1 Bft) O-SO 112 0 min 0,000 mm 0,5 UV-I 116 W/m 13,5 C 20,3 C 3,2 km/h (1 Bft) 100,00 %
09.08.2020 07:45 27,0 C 20,3 C 45 % 65 % 1018,5 hPa 0,0 l/m 1,6 km/h (1 Bft) O-SO 112 1 min 0,000 mm 0,5 UV-I 160 W/m 13,5 C 20,3 C 3,2 km/h (1 Bft) 100,00 %
09.08.2020 07:44 27,0 C 20,3 C 45 % 65 % 1018,5 hPa 0,0 l/m 1,6 km/h (1 Bft) O-SO 112 1 min 0,000 mm 0,5 UV-I 181 W/m 13,5 C 20,3 C 3,2 km/h (1 Bft) 100,00 %
09.08.2020 07:43 27,0 C 20,3 C 45 % 65 % 1018,4 hPa 0,0 l/m 1,6 km/h (1 Bft) O-SO 112 1 min 0,000 mm 0,5 UV-I 162 W/m 13,5 C 20,3 C 3,2 km/h (1 Bft) 100,00 %
09.08.2020 07:42 27,0 C 20,2 C 45 % 65 % 1018,6 hPa 0,0 l/m 1,6 km/h (1 Bft) O-SO 112 0 min 0,000 mm 0,5 UV-I 120 W/m 13,4 C 20,2 C 3,2 km/h (1 Bft) 100,00 %
09.08.2020 07:41 27,0 C 20,2 C 45 % 65 % 1018,6 hPa 0,0 l/m 1,6 km/h (1 Bft) O-SO 112 0 min 0,000 mm 0,0 UV-I 83 W/m 13,4 C 20,2 C 3,2 km/h (1 Bft) 95,65 %
09.08.2020 07:40 26,9 C 20,2 C 45 % 65 % 1018,6 hPa 0,0 l/m 1,6 km/h (1 Bft) O-SO 112 0 min 0,000 mm 0,0 UV-I 37 W/m 13,4 C 20,2 C 1,6 km/h (1 Bft) 100,00 %
09.08.2020 07:39 26,9 C 20,2 C 45 % 65 % 1018,5 hPa 0,0 l/m 1,6 km/h (1 Bft) O-SO 112 0 min 0,000 mm 0,0 UV-I 35 W/m 13,4 C 20,2 C 3,2 km/h (1 Bft) 100,00 %
09.08.2020 07:38 27,0 C 20,1 C 45 % 66 % 1018,4 hPa 0,0 l/m 1,6 km/h (1 Bft) O-SO 112 0 min 0,000 mm 0,0 UV-I 35 W/m 13,5 C 20,1 C 3,2 km/h (1 Bft) 100,00 %
09.08.2020 07:37 27,0 C 20,1 C 45 % 65 % 1018,5 hPa 0,0 l/m 1,6 km/h (1 Bft) O-SO 112 0 min 0,000 mm 0,0 UV-I 35 W/m 13,3 C 20,1 C 3,2 km/h (1 Bft) 100,00 %
09.08.2020 07:36 27,0 C 20,1 C 45 % 65 % 1018,5 hPa 0,0 l/m 1,6 km/h (1 Bft) O-SO 112 0 min 0,000 mm 0,0 UV-I 33 W/m 13,3 C 20,1 C 3,2 km/h (1 Bft) 100,00 %
09.08.2020 07:35 27,0 C 20,1 C 45 % 66 % 1018,6 hPa 0,0 l/m 1,6 km/h (1 Bft) O-SO 112 0 min 0,000 mm 0,0 UV-I 33 W/m 13,5 C 20,1 C 3,2 km/h (1 Bft) 100,00 %
09.08.2020 07:34 27,0 C 20,1 C 45 % 66 % 1018,4 hPa 0,0 l/m 1,6 km/h (1 Bft) O-SO 112 0 min 0,000 mm 0,0 UV-I 33 W/m 13,5 C 20,1 C 1,6 km/h (1 Bft) 100,00 %
09.08.2020 07:33 27,0 C 20,1 C 45 % 66 % 1018,5 hPa 0,0 l/m 1,6 km/h (1 Bft) O-SO 112 0 min 0,000 mm 0,0 UV-I 33 W/m 13,5 C 20,1 C 3,2 km/h (1 Bft) 95,65 %
09.08.2020 07:32 27,0 C 20,1 C 45 % 65 % 1018,6 hPa 0,0 l/m 0,0 km/h (0 Bft) O-SO 112 0 min 0,000 mm 0,0 UV-I 32 W/m 13,3 C 20,1 C 1,6 km/h (1 Bft) 100,00 %
09.08.2020 07:31 27,0 C 20,0 C 45 % 65 % 1018,5 hPa 0,0 l/m 1,6 km/h (1 Bft) O-SO 112 0 min 0,000 mm 0,0 UV-I 32 W/m 13,2 C 20,0 C 1,6 km/h (1 Bft) 100,00 %
09.08.2020 07:30 27,0 C 19,9 C 45 % 65 % 1018,5 hPa 0,0 l/m 1,6 km/h (1 Bft) O-SO 112 0 min 0,000 mm 0,0 UV-I 32 W/m 13,1 C 19,9 C 1,6 km/h (1 Bft) 100,00 %
09.08.2020 07:29 27,1 C 19,9 C 45 % 66 % 1018,6 hPa 0,0 l/m 1,6 km/h (1 Bft) O-SO 112 0 min 0,000 mm 0,0 UV-I 32 W/m 13,4 C 19,9 C 3,2 km/h (1 Bft) 100,00 %
09.08.2020 07:28 27,0 C 19,9 C 45 % 66 % 1018,5 hPa 0,0 l/m 1,6 km/h (1 Bft) O-SO 112 0 min 0,000 mm 0,0 UV-I 32 W/m 13,4 C 19,9 C 1,6 km/h (1 Bft) 100,00 %
09.08.2020 07:27 27,0 C 19,9 C 45 % 65 % 1018,5 hPa 0,0 l/m 1,6 km/h (1 Bft) O-SO 112 0 min 0,000 mm 0,0 UV-I 32 W/m 13,1 C 19,9 C 3,2 km/h (1 Bft) 100,00 %
09.08.2020 07:26 27,1 C 19,9 C 45 % 64 % 1018,6 hPa 0,0 l/m 0,0 km/h (0 Bft) O-SO 112 0 min 0,000 mm 0,0 UV-I 32 W/m 12,9 C 19,9 C 1,6 km/h (1 Bft) 95,65 %
09.08.2020 07:25 27,1 C 19,8 C 45 % 65 % 1018,6 hPa 0,0 l/m 0,0 km/h (0 Bft) O-SO 112 0 min 0,000 mm 0,0 UV-I 30 W/m 13,0 C 19,8 C 1,6 km/h (1 Bft) 100,00 %
09.08.2020 07:24 27,1 C 19,8 C 45 % 65 % 1018,5 hPa 0,0 l/m 1,6 km/h (1 Bft) O-SO 112 0 min 0,000 mm 0,0 UV-I 30 W/m 13,0 C 19,8 C 1,6 km/h (1 Bft) 100,00 %
09.08.2020 07:23 27,1 C 19,8 C 45 % 65 % 1018,4 hPa 0,0 l/m 0,0 km/h (0 Bft) O-SO 112 0 min 0,000 mm 0,0 UV-I 30 W/m 13,0 C 19,8 C 1,6 km/h (1 Bft) 100,00 %
09.08.2020 07:22 27,1 C 19,8 C 45 % 64 % 1018,6 hPa 0,0 l/m 1,6 km/h (1 Bft) O-SO 112 0 min 0,000 mm 0,0 UV-I 30 W/m 12,8 C 19,8 C 1,6 km/h (1 Bft) 100,00 %
09.08.2020 07:21 27,1 C 19,8 C 45 % 65 % 1018,5 hPa 0,0 l/m 0,0 km/h (0 Bft) N 0 0 min 0,000 mm 0,0 UV-I 30 W/m 13,0 C 19,8 C 0,0 km/h (0 Bft) 95,65 %
09.08.2020 07:20 27,1 C 19,8 C 45 % 65 % 1018,5 hPa 0,0 l/m 0,0 km/h (0 Bft) O-SO 112 0 min 0,000 mm 0,0 UV-I 30 W/m 13,0 C 19,8 C 1,6 km/h (1 Bft) 100,00 %
09.08.2020 07:19 27,1 C 19,8 C 45 % 63 % 1018,5 hPa 0,0 l/m 0,0 km/h (0 Bft) O-SO 112 0 min 0,000 mm 0,0 UV-I 30 W/m 12,5 C 19,8 C 1,6 km/h (1 Bft) 100,00 %
09.08.2020 07:18 27,1 C 19,8 C 45 % 64 % 1018,5 hPa 0,0 l/m 0,0 km/h (0 Bft) O-SO 112 0 min 0,000 mm 0,0 UV-I 30 W/m 12,8 C 19,8 C 1,6 km/h (1 Bft) 100,00 %
09.08.2020 07:17 27,0 C 19,7 C 45 % 64 % 1018,6 hPa 0,0 l/m 0,0 km/h (0 Bft) O-SO 112 0 min 0,000 mm 0,0 UV-I 28 W/m 12,7 C 19,7 C 1,6 km/h (1 Bft) 95,65 %
09.08.2020 07:16 27,1 C 19,6 C 45 % 64 % 1018,5 hPa 0,0 l/m 0,0 km/h (0 Bft) N 0 0 min 0,000 mm 0,0 UV-I 28 W/m 12,6 C 19,6 C 0,0 km/h (0 Bft) 100,00 %
09.08.2020 07:15 27,1 C 19,6 C 45 % 65 % 1018,5 hPa 0,0 l/m 0,0 km/h (0 Bft) N 0 0 min 0,000 mm 0,0 UV-I 28 W/m 12,8 C 19,6 C 0,0 km/h (0 Bft) 100,00 %
09.08.2020 07:14 27,1 C 19,6 C 45 % 65 % 1018,4 hPa 0,0 l/m 0,0 km/h (0 Bft) O-SO 112 0 min 0,000 mm 0,0 UV-I 28 W/m 12,8 C 19,6 C 1,6 km/h (1 Bft) 100,00 %
09.08.2020 07:13 27,1 C 19,6 C 45 % 64 % 1018,4 hPa 0,0 l/m 0,0 km/h (0 Bft) N 0 0 min 0,000 mm 0,0 UV-I 28 W/m 12,6 C 19,6 C 0,0 km/h (0 Bft) 100,00 %
09.08.2020 07:12 27,1 C 19,6 C 45 % 65 % 1018,4 hPa 0,0 l/m 0,0 km/h (0 Bft) N 0 0 min 0,000 mm 0,0 UV-I 28 W/m 12,8 C 19,6 C 0,0 km/h (0 Bft) 100,00 %
09.08.2020 07:11 27,1 C 19,6 C 45 % 65 % 1018,3 hPa 0,0 l/m 0,0 km/h (0 Bft) N 0 0 min 0,000 mm 0,0 UV-I 26 W/m 12,8 C 19,6 C 0,0 km/h (0 Bft) 95,65 %
09.08.2020 07:10 27,1 C 19,6 C 45 % 64 % 1018,4 hPa 0,0 l/m 0,0 km/h (0 Bft) N 0 0 min 0,000 mm 0,0 UV-I 26 W/m 12,6 C 19,6 C 0,0 km/h (0 Bft) 100,00 %
09.08.2020 07:09 27,1 C 19,6 C 45 % 64 % 1018,4 hPa 0,0 l/m 0,0 km/h (0 Bft) N 0 0 min 0,000 mm 0,0 UV-I 26 W/m 12,6 C 19,6 C 0,0 km/h (0 Bft) 95,65 %
09.08.2020 07:08 27,1 C 19,6 C 45 % 65 % 1018,3 hPa 0,0 l/m 0,0 km/h (0 Bft) O-SO 112 0 min 0,000 mm 0,0 UV-I 26 W/m 12,8 C 19,6 C 1,6 km/h (1 Bft) 100,00 %
09.08.2020 07:07 27,1 C 19,6 C 45 % 64 % 1018,4 hPa 0,0 l/m 0,0 km/h (0 Bft) O-SO 112 0 min 0,000 mm 0,0 UV-I 26 W/m 12,6 C 19,6 C 1,6 km/h (1 Bft) 100,00 %
09.08.2020 07:06 27,1 C 19,6 C 45 % 64 % 1018,4 hPa 0,0 l/m 0,0 km/h (0 Bft) O-SO 112 0 min 0,000 mm 0,0 UV-I 26 W/m 12,6 C 19,6 C 1,6 km/h (1 Bft) 100,00 %
09.08.2020 07:05 27,1 C 19,6 C 45 % 63 % 1018,4 hPa 0,0 l/m 0,0 km/h (0 Bft) N 0 0 min 0,000 mm 0,0 UV-I 26 W/m 12,4 C 19,6 C 0,0 km/h (0 Bft) 95,65 %
09.08.2020 07:04 27,1 C 19,6 C 45 % 63 % 1018,3 hPa 0,0 l/m 0,0 km/h (0 Bft) O-SO 112 0 min 0,000 mm 0,0 UV-I 25 W/m 12,4 C 19,6 C 1,6 km/h (1 Bft) 95,65 %
09.08.2020 07:03 27,1 C 19,6 C 45 % 63 % 1018,4 hPa 0,0 l/m 0,0 km/h (0 Bft) O-SO 112 0 min 0,000 mm 0,0 UV-I 25 W/m 12,4 C 19,6 C 1,6 km/h (1 Bft) 100,00 %
09.08.2020 07:02 27,1 C 19,6 C 45 % 64 % 1018,3 hPa 0,0 l/m 0,0 km/h (0 Bft) O-SO 112 0 min 0,000 mm 0,0 UV-I 25 W/m 12,6 C 19,6 C 1,6 km/h (1 Bft) 100,00 %
09.08.2020 07:01 27,1 C 19,6 C 45 % 63 % 1018,4 hPa 0,0 l/m 0,0 km/h (0 Bft) O-SO 112 0 min 0,000 mm 0,0 UV-I 25 W/m 12,4 C 19,6 C 1,6 km/h (1 Bft) 95,65 %
09.08.2020 07:00 27,1 C 19,6 C 45 % 63 % 1018,4 hPa 0,0 l/m 0,0 km/h (0 Bft) N 0 0 min 0,025 mm 0,0 UV-I 25 W/m 12,4 C 19,6 C 0,0 km/h (0 Bft) 100,00 %
09.08.2020 06:59 27,1 C 19,6 C 45 % 63 % 1018,3 hPa 0,0 l/m 0,0 km/h (0 Bft) O-SO 112 0 min 0,000 mm 0,0 UV-I 25 W/m 12,4 C 19,6 C 1,6 km/h (1 Bft) 100,00 %
09.08.2020 06:58 27,1 C 19,6 C 45 % 63 % 1018,4 hPa 0,0 l/m 0,0 km/h (0 Bft) O-SO 112 0 min 0,000 mm 0,0 UV-I 25 W/m 12,4 C 19,6 C 1,6 km/h (1 Bft) 100,00 %
09.08.2020 06:57 27,1 C 19,6 C 45 % 63 % 1018,3 hPa 0,0 l/m 0,0 km/h (0 Bft) O-SO 112 0 min 0,000 mm 0,0 UV-I 23 W/m 12,4 C 19,6 C 1,6 km/h (1 Bft) 100,00 %
09.08.2020 06:56 27,1 C 19,7 C 45 % 63 % 1018,3 hPa 0,0 l/m 0,0 km/h (0 Bft) O-SO 112 0 min 0,000 mm 0,0 UV-I 23 W/m 12,5 C 19,7 C 1,6 km/h (1 Bft) 100,00 %
09.08.2020 06:55 27,1 C 19,6 C 45 % 63 % 1018,3 hPa 0,0 l/m 0,0 km/h (0 Bft) N 0 0 min 0,000 mm 0,0 UV-I 23 W/m 12,4 C 19,6 C 0,0 km/h (0 Bft) 100,00 %
09.08.2020 06:54 27,1 C 19,6 C 45 % 63 % 1018,3 hPa 0,0 l/m 0,0 km/h (0 Bft) N 0 0 min 0,000 mm 0,0 UV-I 23 W/m 12,4 C 19,6 C 0,0 km/h (0 Bft) 100,00 %
09.08.2020 06:53 27,1 C 19,6 C 45 % 63 % 1018,3 hPa 0,0 l/m 1,6 km/h (1 Bft) O-SO 112 0 min 0,000 mm 0,0 UV-I 23 W/m 12,4 C 19,6 C 3,2 km/h (1 Bft) 100,00 %
09.08.2020 06:52 27,1 C 19,7 C 45 % 63 % 1018,4 hPa 0,0 l/m 0,0 km/h (0 Bft) N 0 0 min 0,000 mm 0,0 UV-I 21 W/m 12,5 C 19,7 C 0,0 km/h (0 Bft) 100,00 %
09.08.2020 06:51 27,1 C 19,7 C 45 % 62 % 1018,3 hPa 0,0 l/m 0,0 km/h (0 Bft) O-SO 112 0 min 0,000 mm 0,0 UV-I 21 W/m 12,2 C 19,7 C 1,6 km/h (1 Bft) 100,00 %
09.08.2020 06:50 27,1 C 19,6 C 45 % 63 % 1018,4 hPa 0,0 l/m 0,0 km/h (0 Bft) O-SO 112 0 min 0,000 mm 0,0 UV-I 21 W/m 12,4 C 19,6 C 1,6 km/h (1 Bft) 100,00 %
09.08.2020 06:49 27,1 C 19,7 C 45 % 62 % 1018,3 hPa 0,0 l/m 0,0 km/h (0 Bft) O-SO 112 0 min 0,000 mm 0,0 UV-I 21 W/m 12,2 C 19,7 C 1,6 km/h (1 Bft) 100,00 %
09.08.2020 06:48 27,1 C 19,7 C 45 % 63 % 1018,2 hPa 0,0 l/m 0,0 km/h (0 Bft) O-SO 112 0 min 0,000 mm 0,0 UV-I 21 W/m 12,5 C 19,7 C 1,6 km/h (1 Bft) 100,00 %
09.08.2020 06:47 27,1 C 19,7 C 45 % 62 % 1018,3 hPa 0,0 l/m 0,0 km/h (0 Bft) O-SO 112 0 min 0,000 mm 0,0 UV-I 21 W/m 12,2 C 19,7 C 1,6 km/h (1 Bft) 100,00 %
09.08.2020 06:46 27,1 C 19,7 C 45 % 62 % 1018,3 hPa 0,0 l/m 0,0 km/h (0 Bft) N 0 0 min 0,000 mm 0,0 UV-I 21 W/m 12,2 C 19,7 C 0,0 km/h (0 Bft) 100,00 %
09.08.2020 06:45 27,1 C 19,7 C 45 % 62 % 1018,3 hPa 0,0 l/m 0,0 km/h (0 Bft) O-SO 112 0 min 0,000 mm 0,0 UV-I 19 W/m 12,2 C 19,7 C 1,6 km/h (1 Bft) 100,00 %
09.08.2020 06:44 27,1 C 19,7 C 45 % 61 % 1018,3 hPa 0,0 l/m 0,0 km/h (0 Bft) O-SO 112 0 min 0,000 mm 0,0 UV-I 19 W/m 12,0 C 19,7 C 1,6 km/h (1 Bft) 95,65 %
09.08.2020 06:43 27,1 C 19,7 C 45 % 61 % 1018,3 hPa 0,0 l/m 0,0 km/h (0 Bft) O-SO 112 0 min 0,000 mm 0,0 UV-I 19 W/m 12,0 C 19,7 C 1,6 km/h (1 Bft) 100,00 %
09.08.2020 06:42 27,1 C 19,7 C 45 % 61 % 1018,3 hPa 0,0 l/m 1,6 km/h (1 Bft) O-SO 112 0 min 0,000 mm 0,0 UV-I 19 W/m 12,0 C 19,7 C 1,6 km/h (1 Bft) 95,65 %
09.08.2020 06:41 27,1 C 19,7 C 45 % 61 % 1018,3 hPa 0,0 l/m 0,0 km/h (0 Bft) O-SO 112 0 min 0,000 mm 0,0 UV-I 19 W/m 12,0 C 19,7 C 1,6 km/h (1 Bft) 100,00 %
09.08.2020 06:40 27,0 C 19,7 C 45 % 61 % 1018,3 hPa 0,0 l/m 1,6 km/h (1 Bft) O-SO 112 0 min 0,000 mm 0,0 UV-I 19 W/m 12,0 C 19,7 C 3,2 km/h (1 Bft) 100,00 %
09.08.2020 06:39 27,0 C 19,7 C 45 % 61 % 1018,3 hPa 0,0 l/m 0,0 km/h (0 Bft) O-SO 112 0 min 0,000 mm 0,0 UV-I 19 W/m 12,0 C 19,7 C 1,6 km/h (1 Bft) 100,00 %
09.08.2020 06:38 27,0 C 19,7 C 45 % 61 % 1018,3 hPa 0,0 l/m 1,6 km/h (1 Bft) O-SO 112 0 min 0,000 mm 0,0 UV-I 18 W/m 12,0 C 19,7 C 3,2 km/h (1 Bft) 100,00 %
09.08.2020 06:37 27,0 C 19,7 C 45 % 61 % 1018,3 hPa 0,0 l/m 1,6 km/h (1 Bft) O-SO 112 0 min 0,000 mm 0,0 UV-I 18 W/m 12,0 C 19,7 C 3,2 km/h (1 Bft) 100,00 %
09.08.2020 06:36 27,0 C 19,7 C 45 % 61 % 1018,3 hPa 0,0 l/m 1,6 km/h (1 Bft) O-SO 112 0 min 0,000 mm 0,0 UV-I 18 W/m 12,0 C 19,7 C 3,2 km/h (1 Bft) 100,00 %
09.08.2020 06:35 26,9 C 19,7 C 45 % 61 % 1018,3 hPa 0,0 l/m 1,6 km/h (1 Bft) O-SO 112 0 min 0,000 mm 0,0 UV-I 18 W/m 12,0 C 19,7 C 3,2 km/h (1 Bft) 100,00 %
09.08.2020 06:34 26,9 C 19,8 C 45 % 60 % 1018,3 hPa 0,0 l/m 1,6 km/h (1 Bft) O-SO 112 0 min 0,000 mm 0,0 UV-I 18 W/m 11,8 C 19,8 C 3,2 km/h (1 Bft) 100,00 %
09.08.2020 06:33 26,9 C 19,8 C 45 % 61 % 1018,3 hPa 0,0 l/m 1,6 km/h (1 Bft) O-SO 112 0 min 0,000 mm 0,0 UV-I 18 W/m 12,1 C 19,8 C 3,2 km/h (1 Bft) 95,65 %
09.08.2020 06:32 26,9 C 19,8 C 45 % 60 % 1018,2 hPa 0,0 l/m 1,6 km/h (1 Bft) O-SO 112 0 min 0,000 mm 0,0 UV-I 16 W/m 11,8 C 19,8 C 3,2 km/h (1 Bft) 100,00 %
09.08.2020 06:31 26,9 C 19,8 C 45 % 60 % 1018,2 hPa 0,0 l/m 1,6 km/h (1 Bft) O-SO 112 0 min 0,000 mm 0,0 UV-I 16 W/m 11,8 C 19,8 C 1,6 km/h (1 Bft) 95,65 %
09.08.2020 06:30 26,9 C 19,8 C 45 % 60 % 1018,2 hPa 0,0 l/m 1,6 km/h (1 Bft) O-SO 112 0 min 0,000 mm 0,0 UV-I 16 W/m 11,8 C 19,8 C 1,6 km/h (1 Bft) 100,00 %
09.08.2020 06:29 26,9 C 19,8 C 45 % 60 % 1018,3 hPa 0,0 l/m 0,0 km/h (0 Bft) O-SO 112 0 min 0,000 mm 0,0 UV-I 16 W/m 11,8 C 19,8 C 1,6 km/h (1 Bft) 100,00 %
09.08.2020 06:28 26,9 C 19,8 C 45 % 60 % 1018,3 hPa 0,0 l/m 0,0 km/h (0 Bft) O-SO 112 0 min 0,000 mm 0,0 UV-I 16 W/m 11,8 C 19,8 C 1,6 km/h (1 Bft) 95,65 %
09.08.2020 06:27 26,9 C 19,8 C 45 % 60 % 1018,2 hPa 0,0 l/m 1,6 km/h (1 Bft) O-SO 112 0 min 0,000 mm 0,0 UV-I 16 W/m 11,8 C 19,8 C 3,2 km/h (1 Bft) 100,00 %
09.08.2020 06:26 26,8 C 19,7 C 46 % 60 % 1018,3 hPa 0,0 l/m 0,0 km/h (0 Bft) O-SO 112 0 min 0,000 mm 0,0 UV-I 14 W/m 11,7 C 19,7 C 1,6 km/h (1 Bft) 100,00 %
09.08.2020 06:25 26,8 C 19,7 C 45 % 60 % 1018,3 hPa 0,0 l/m 0,0 km/h (0 Bft) O-SO 112 0 min 0,000 mm 0,0 UV-I 14 W/m 11,7 C 19,7 C 3,2 km/h (1 Bft) 100,00 %
09.08.2020 06:24 26,8 C 19,7 C 46 % 60 % 1018,3 hPa 0,0 l/m 0,0 km/h (0 Bft) O-SO 112 0 min 0,000 mm 0,0 UV-I 14 W/m 11,7 C 19,7 C 1,6 km/h (1 Bft) 95,65 %
09.08.2020 06:23 26,8 C 19,7 C 46 % 60 % 1018,2 hPa 0,0 l/m 1,6 km/h (1 Bft) O-SO 112 0 min 0,000 mm 0,0 UV-I 14 W/m 11,7 C 19,7 C 3,2 km/h (1 Bft) 100,00 %
09.08.2020 06:22 26,8 C 19,7 C 46 % 60 % 1018,2 hPa 0,0 l/m 1,6 km/h (1 Bft) O-SO 112 0 min 0,000 mm 0,0 UV-I 14 W/m 11,7 C 19,7 C 1,6 km/h (1 Bft) 100,00 %
09.08.2020 06:21 26,8 C 19,7 C 46 % 60 % 1018,2 hPa 0,0 l/m 1,6 km/h (1 Bft) O-SO 112 0 min 0,000 mm 0,0 UV-I 12 W/m 11,7 C 19,7 C 1,6 km/h (1 Bft) 100,00 %
09.08.2020 06:20 26,8 C 19,7 C 46 % 59 % 1018,2 hPa 0,0 l/m 1,6 km/h (1 Bft) O-SO 112 0 min 0,000 mm 0,0 UV-I 12 W/m 11,5 C 19,7 C 3,2 km/h (1 Bft) 100,00 %
09.08.2020 06:19 26,8 C 19,8 C 46 % 60 % 1018,2 hPa 0,0 l/m 1,6 km/h (1 Bft) O-SO 112 0 min 0,000 mm 0,0 UV-I 12 W/m 11,8 C 19,8 C 3,2 km/h (1 Bft) 95,65 %
09.08.2020 06:18 26,8 C 19,8 C 46 % 60 % 1018,2 hPa 0,0 l/m 1,6 km/h (1 Bft) O-SO 112 0 min 0,000 mm 0,0 UV-I 12 W/m 11,8 C 19,8 C 3,2 km/h (1 Bft) 100,00 %
09.08.2020 06:17 26,8 C 19,7 C 46 % 59 % 1018,2 hPa 0,0 l/m 1,6 km/h (1 Bft) O-SO 112 0 min 0,000 mm 0,0 UV-I 12 W/m 11,5 C 19,7 C 3,2 km/h (1 Bft) 100,00 %
09.08.2020 06:16 26,8 C 19,7 C 46 % 59 % 1018,1 hPa 0,0 l/m 0,0 km/h (0 Bft) O-SO 112 0 min 0,000 mm 0,0 UV-I 12 W/m 11,5 C 19,7 C 1,6 km/h (1 Bft) 100,00 %
09.08.2020 06:15 26,8 C 19,7 C 46 % 59 % 1018,2 hPa 0,0 l/m 1,6 km/h (1 Bft) O-SO 112 0 min 0,000 mm 0,0 UV-I 11 W/m 11,5 C 19,7 C 1,6 km/h (1 Bft) 100,00 %
09.08.2020 06:14 26,8 C 19,7 C 46 % 60 % 1018,2 hPa 0,0 l/m 1,6 km/h (1 Bft) O-SO 112 0 min 0,000 mm 0,0 UV-I 11 W/m 11,7 C 19,7 C 3,2 km/h (1 Bft) 100,00 %
09.08.2020 06:13 26,8 C 19,7 C 46 % 59 % 1018,2 hPa 0,0 l/m 0,0 km/h (0 Bft) O-SO 112 0 min 0,000 mm 0,0 UV-I 11 W/m 11,5 C 19,7 C 1,6 km/h (1 Bft) 95,65 %
09.08.2020 06:12 26,8 C 19,7 C 46 % 60 % 1018,3 hPa 0,0 l/m 1,6 km/h (1 Bft) O-SO 112 0 min 0,000 mm 0,0 UV-I 11 W/m 11,7 C 19,7 C 3,2 km/h (1 Bft) 95,65 %
09.08.2020 06:11 26,7 C 19,7 C 46 % 60 % 1018,2 hPa 0,0 l/m 1,6 km/h (1 Bft) O-SO 112 0 min 0,000 mm 0,0 UV-I 9 W/m 11,7 C 19,7 C 3,2 km/h (1 Bft) 100,00 %
09.08.2020 06:10 26,8 C 19,7 C 46 % 60 % 1018,2 hPa 0,0 l/m 1,6 km/h (1 Bft) O-SO 112 0 min 0,000 mm 0,0 UV-I 9 W/m 11,7 C 19,7 C 3,2 km/h (1 Bft) 100,00 %
09.08.2020 06:09 26,8 C 19,7 C 46 % 59 % 1018,2 hPa 0,0 l/m 1,6 km/h (1 Bft) O-SO 112 0 min 0,000 mm 0,0 UV-I 9 W/m 11,5 C 19,7 C 3,2 km/h (1 Bft) 100,00 %
09.08.2020 06:08 26,8 C 19,7 C 46 % 59 % 1018,2 hPa 0,0 l/m 1,6 km/h (1 Bft) O-SO 112 0 min 0,000 mm 0,0 UV-I 9 W/m 11,5 C 19,7 C 3,2 km/h (1 Bft) 100,00 %
09.08.2020 06:07 26,8 C 19,8 C 46 % 60 % 1018,3 hPa 0,0 l/m 1,6 km/h (1 Bft) O-SO 112 0 min 0,000 mm 0,0 UV-I 9 W/m 11,8 C 19,8 C 3,2 km/h (1 Bft) 100,00 %
09.08.2020 06:06 26,8 C 19,8 C 46 % 59 % 1018,3 hPa 0,0 l/m 0,0 km/h (0 Bft) O-SO 112 0 min 0,000 mm 0,0 UV-I 7 W/m 11,6 C 19,8 C 1,6 km/h (1 Bft) 100,00 %
09.08.2020 06:05 26,8 C 19,8 C 46 % 59 % 1018,2 hPa 0,0 l/m 1,6 km/h (1 Bft) O-SO 112 0 min 0,000 mm 0,0 UV-I 7 W/m 11,6 C 19,8 C 1,6 km/h (1 Bft) 100,00 %
09.08.2020 06:04 26,8 C 19,8 C 46 % 59 % 1018,3 hPa 0,0 l/m 0,0 km/h (0 Bft) O-SO 112 0 min 0,000 mm 0,0 UV-I 7 W/m 11,6 C 19,8 C 1,6 km/h (1 Bft) 100,00 %
09.08.2020 06:03 26,8 C 19,8 C 46 % 59 % 1018,2 hPa 0,0 l/m 1,6 km/h (1 Bft) O-SO 112 0 min 0,000 mm 0,0 UV-I 7 W/m 11,6 C 19,8 C 1,6 km/h (1 Bft) 100,00 %
09.08.2020 06:02 26,8 C 19,8 C 46 % 59 % 1018,2 hPa 0,0 l/m 1,6 km/h (1 Bft) O-SO 112 0 min 0,000 mm 0,0 UV-I 7 W/m 11,6 C 19,8 C 1,6 km/h (1 Bft) 95,65 %
09.08.2020 06:01 26,8 C 19,8 C 46 % 59 % 1018,2 hPa 0,0 l/m 0,0 km/h (0 Bft) O-SO 112 0 min 0,000 mm 0,0 UV-I 5 W/m 11,6 C 19,8 C 1,6 km/h (1 Bft) 100,00 %
09.08.2020 06:00 26,8 C 19,8 C 46 % 59 % 1018,2 hPa 0,0 l/m 0,0 km/h (0 Bft) O-SO 112 0 min 0,025 mm 0,0 UV-I 5 W/m 11,6 C 19,8 C 1,6 km/h (1 Bft) 91,30 %
09.08.2020 05:59 26,8 C 19,8 C 46 % 59 % 1018,2 hPa 0,0 l/m 0,0 km/h (0 Bft) O-SO 112 0 min 0,000 mm 0,0 UV-I 5 W/m 11,6 C 19,8 C 1,6 km/h (1 Bft) 100,00 %
09.08.2020 05:58 26,8 C 19,7 C 46 % 59 % 1018,2 hPa 0,0 l/m 1,6 km/h (1 Bft) O-SO 112 0 min 0,000 mm 0,0 UV-I 5 W/m 11,5 C 19,7 C 3,2 km/h (1 Bft) 100,00 %
09.08.2020 05:57 26,8 C 19,7 C 46 % 59 % 1018,1 hPa 0,0 l/m 1,6 km/h (1 Bft) O-SO 112 0 min 0,000 mm 0,0 UV-I 5 W/m 11,5 C 19,7 C 1,6 km/h (1 Bft) 91,30 %
09.08.2020 05:56 26,8 C 19,7 C 46 % 60 % 1018,3 hPa 0,0 l/m 1,6 km/h (1 Bft) O-SO 112 0 min 0,000 mm 0,0 UV-I 0 W/m 11,7 C 19,7 C 3,2 km/h (1 Bft) 100,00 %
09.08.2020 05:55 26,8 C 19,7 C 46 % 60 % 1018,2 hPa 0,0 l/m 1,6 km/h (1 Bft) O-SO 112 0 min 0,000 mm 0,0 UV-I 0 W/m 11,7 C 19,7 C 3,2 km/h (1 Bft) 100,00 %
09.08.2020 05:54 26,8 C 19,7 C 46 % 60 % 1018,2 hPa 0,0 l/m 1,6 km/h (1 Bft) O-SO 112 0 min 0,000 mm 0,0 UV-I 0 W/m 11,7 C 19,7 C 3,2 km/h (1 Bft) 100,00 %
09.08.2020 05:53 26,8 C 19,7 C 46 % 60 % 1018,1 hPa 0,0 l/m 1,6 km/h (1 Bft) O-SO 112 0 min 0,000 mm 0,0 UV-I 0 W/m 11,7 C 19,7 C 3,2 km/h (1 Bft) 100,00 %
09.08.2020 05:52 26,8 C 19,7 C 46 % 60 % 1018,1 hPa 0,0 l/m 1,6 km/h (1 Bft) O-SO 112 0 min 0,000 mm 0,0 UV-I 0 W/m 11,7 C 19,7 C 3,2 km/h (1 Bft) 100,00 %
09.08.2020 05:51 26,8 C 19,7 C 46 % 60 % 1018,1 hPa 0,0 l/m 1,6 km/h (1 Bft) O-SO 112 0 min 0,000 mm 0,0 UV-I 0 W/m 11,7 C 19,7 C 3,2 km/h (1 Bft) 95,65 %
09.08.2020 05:50 26,8 C 19,6 C 46 % 60 % 1018,1 hPa 0,0 l/m 1,6 km/h (1 Bft) O-SO 112 0 min 0,000 mm 0,0 UV-I 0 W/m 11,6 C 19,6 C 4,8 km/h (1 Bft) 100,00 %
09.08.2020 05:49 26,8 C 19,7 C 46 % 60 % 1018,1 hPa 0,0 l/m 1,6 km/h (1 Bft) O-SO 112 0 min 0,000 mm 0,0 UV-I 0 W/m 11,7 C 19,7 C 3,2 km/h (1 Bft) 100,00 %
09.08.2020 05:48 26,8 C 19,7 C 46 % 60 % 1018,1 hPa 0,0 l/m 1,6 km/h (1 Bft) O-SO 112 0 min 0,000 mm 0,0 UV-I 0 W/m 11,7 C 19,7 C 3,2 km/h (1 Bft) 100,00 %
09.08.2020 05:47 26,8 C 19,7 C 46 % 60 % 1018,1 hPa 0,0 l/m 1,6 km/h (1 Bft) O-SO 112 0 min 0,000 mm 0,0 UV-I 0 W/m 11,7 C 19,7 C 3,2 km/h (1 Bft) 100,00 %
09.08.2020 05:46 26,8 C 19,7 C 46 % 60 % 1018,1 hPa 0,0 l/m 1,6 km/h (1 Bft) O-SO 112 0 min 0,000 mm 0,0 UV-I 0 W/m 11,7 C 19,7 C 3,2 km/h (1 Bft) 100,00 %
09.08.2020 05:45 26,8 C 19,6 C 46 % 60 % 1018,1 hPa 0,0 l/m 1,6 km/h (1 Bft) O-SO 112 0 min 0,000 mm 0,0 UV-I 0 W/m 11,6 C 19,6 C 3,2 km/h (1 Bft) 95,65 %
09.08.2020 05:44 26,8 C 19,7 C 46 % 60 % 1018,1 hPa 0,0 l/m 3,2 km/h (1 Bft) O-SO 112 0 min 0,000 mm 0,0 UV-I 0 W/m 11,7 C 19,7 C 3,2 km/h (1 Bft) 100,00 %
09.08.2020 05:43 26,8 C 19,6 C 46 % 60 % 1018,1 hPa 0,0 l/m 1,6 km/h (1 Bft) O-SO 112 0 min 0,000 mm 0,0 UV-I 0 W/m 11,6 C 19,6 C 3,2 km/h (1 Bft) 95,65 %
09.08.2020 05:42 26,8 C 19,6 C 46 % 60 % 1018,1 hPa 0,0 l/m 1,6 km/h (1 Bft) O-SO 112 0 min 0,000 mm 0,0 UV-I 0 W/m 11,6 C 19,6 C 3,2 km/h (1 Bft) 100,00 %
09.08.2020 05:41 26,8 C 19,6 C 46 % 60 % 1018,2 hPa 0,0 l/m 1,6 km/h (1 Bft) O-SO 112 0 min 0,000 mm 0,0 UV-I 0 W/m 11,6 C 19,6 C 3,2 km/h (1 Bft) 100,00 %
09.08.2020 05:40 26,8 C 19,6 C 46 % 60 % 1018,2 hPa 0,0 l/m 1,6 km/h (1 Bft) O 90 0 min 0,000 mm 0,0 UV-I 0 W/m 11,6 C 19,6 C 3,2 km/h (1 Bft) 95,65 %
09.08.2020 05:39 26,8 C 19,6 C 46 % 61 % 1018,2 hPa 0,0 l/m 3,2 km/h (1 Bft) O 90 0 min 0,000 mm 0,0 UV-I 0 W/m 11,9 C 19,6 C 4,8 km/h (1 Bft) 100,00 %
09.08.2020 05:38 26,8 C 19,6 C 46 % 61 % 1018,1 hPa 0,0 l/m 3,2 km/h (1 Bft) O 90 0 min 0,000 mm 0,0 UV-I 0 W/m 11,9 C 19,6 C 4,8 km/h (1 Bft) 100,00 %
09.08.2020 05:37 26,8 C 19,6 C 46 % 61 % 1018,2 hPa 0,0 l/m 3,2 km/h (1 Bft) O 90 0 min 0,000 mm 0,0 UV-I 0 W/m 11,9 C 19,6 C 4,8 km/h (1 Bft) 100,00 %
09.08.2020 05:36 26,8 C 19,6 C 46 % 60 % 1018,2 hPa 0,0 l/m 1,6 km/h (1 Bft) O 90 0 min 0,000 mm 0,0 UV-I 0 W/m 11,6 C 19,6 C 3,2 km/h (1 Bft) 100,00 %
09.08.2020 05:35 26,8 C 19,6 C 46 % 61 % 1018,2 hPa 0,0 l/m 1,6 km/h (1 Bft) O 90 0 min 0,000 mm 0,0 UV-I 0 W/m 11,9 C 19,6 C 3,2 km/h (1 Bft) 100,00 %
09.08.2020 05:34 26,8 C 19,6 C 46 % 61 % 1018,1 hPa 0,0 l/m 1,6 km/h (1 Bft) O 90 0 min 0,000 mm 0,0 UV-I 0 W/m 11,9 C 19,6 C 3,2 km/h (1 Bft) 100,00 %
09.08.2020 05:33 26,8 C 19,6 C 46 % 61 % 1018,2 hPa 0,0 l/m 1,6 km/h (1 Bft) O 90 0 min 0,000 mm 0,0 UV-I 0 W/m 11,9 C 19,6 C 3,2 km/h (1 Bft) 100,00 %
09.08.2020 05:32 26,8 C 19,7 C 46 % 61 % 1018,2 hPa 0,0 l/m 3,2 km/h (1 Bft) O 90 0 min 0,000 mm 0,0 UV-I 0 W/m 12,0 C 19,7 C 4,8 km/h (1 Bft) 95,65 %
09.08.2020 05:31 26,8 C 19,6 C 46 % 61 % 1018,2 hPa 0,0 l/m 1,6 km/h (1 Bft) O 90 0 min 0,000 mm 0,0 UV-I 0 W/m 11,9 C 19,6 C 3,2 km/h (1 Bft) 100,00 %
09.08.2020 05:30 26,8 C 19,7 C 46 % 60 % 1018,2 hPa 0,0 l/m 1,6 km/h (1 Bft) O 90 0 min 0,000 mm 0,0 UV-I 0 W/m 11,7 C 19,7 C 3,2 km/h (1 Bft) 100,00 %
09.08.2020 05:29 26,8 C 19,7 C 46 % 60 % 1018,3 hPa 0,0 l/m 1,6 km/h (1 Bft) O 90 0 min 0,000 mm 0,0 UV-I 0 W/m 11,7 C 19,7 C 3,2 km/h (1 Bft) 100,00 %
09.08.2020 05:28 26,8 C 19,6 C 46 % 61 % 1018,2 hPa 0,0 l/m 1,6 km/h (1 Bft) O 90 0 min 0,000 mm 0,0 UV-I 0 W/m 11,9 C 19,6 C 3,2 km/h (1 Bft) 100,00 %
09.08.2020 05:27 26,8 C 19,7 C 46 % 61 % 1018,2 hPa 0,0 l/m 1,6 km/h (1 Bft) O 90 0 min 0,000 mm 0,0 UV-I 0 W/m 12,0 C 19,7 C 3,2 km/h (1 Bft) 100,00 %
09.08.2020 05:26 26,8 C 19,7 C 46 % 60 % 1018,3 hPa 0,0 l/m 1,6 km/h (1 Bft) O 90 0 min 0,000 mm 0,0 UV-I 0 W/m 11,7 C 19,7 C 3,2 km/h (1 Bft) 100,00 %
09.08.2020 05:25 26,8 C 19,7 C 46 % 60 % 1018,1 hPa 0,0 l/m 1,6 km/h (1 Bft) O 90 0 min 0,000 mm 0,0 UV-I 0 W/m 11,7 C 19,7 C 3,2 km/h (1 Bft) 100,00 %
09.08.2020 05:24 26,8 C 19,7 C 46 % 60 % 1018,2 hPa 0,0 l/m 1,6 km/h (1 Bft) O 90 0 min 0,000 mm 0,0 UV-I 0 W/m 11,7 C 19,7 C 3,2 km/h (1 Bft) 100,00 %
09.08.2020 05:23 26,8 C 19,6 C 46 % 60 % 1018,1 hPa 0,0 l/m 3,2 km/h (1 Bft) O 90 0 min 0,000 mm 0,0 UV-I 0 W/m 11,6 C 19,6 C 4,8 km/h (1 Bft) 95,65 %
09.08.2020 05:22 26,9 C 19,6 C 46 % 60 % 1018,1 hPa 0,0 l/m 1,6 km/h (1 Bft) O 90 0 min 0,000 mm 0,0 UV-I 0 W/m 11,6 C 19,6 C 4,8 km/h (1 Bft) 100,00 %
09.08.2020 05:21 26,8 C 19,6 C 46 % 61 % 1018,2 hPa 0,0 l/m 3,2 km/h (1 Bft) O 90 0 min 0,000 mm 0,0 UV-I 0 W/m 11,9 C 19,6 C 4,8 km/h (1 Bft) 100,00 %
09.08.2020 05:20 26,9 C 19,7 C 46 % 60 % 1018,2 hPa 0,0 l/m 3,2 km/h (1 Bft) O 90 0 min 0,000 mm 0,0 UV-I 0 W/m 11,7 C 19,7 C 4,8 km/h (1 Bft) 100,00 %
09.08.2020 05:19 26,9 C 19,6 C 46 % 60 % 1018,2 hPa 0,0 l/m 3,2 km/h (1 Bft) O 90 0 min 0,000 mm 0,0 UV-I 0 W/m 11,6 C 19,6 C 4,8 km/h (1 Bft) 100,00 %
09.08.2020 05:18 26,8 C 19,6 C 46 % 60 % 1018,2 hPa 0,0 l/m 1,6 km/h (1 Bft) O 90 0 min 0,000 mm 0,0 UV-I 0 W/m 11,6 C 19,6 C 4,8 km/h (1 Bft) 100,00 %
09.08.2020 05:17 26,8 C 19,6 C 46 % 61 % 1018,2 hPa 0,0 l/m 1,6 km/h (1 Bft) O 90 0 min 0,000 mm 0,0 UV-I 0 W/m 11,9 C 19,6 C 3,2 km/h (1 Bft) 100,00 %
09.08.2020 05:16 26,9 C 19,6 C 46 % 61 % 1018,2 hPa 0,0 l/m 3,2 km/h (1 Bft) O 90 0 min 0,000 mm 0,0 UV-I 0 W/m 11,9 C 19,6 C 3,2 km/h (1 Bft) 95,65 %
09.08.2020 05:15 26,9 C 19,6 C 46 % 61 % 1018,2 hPa 0,0 l/m 3,2 km/h (1 Bft) O 90 0 min 0,000 mm 0,0 UV-I 0 W/m 11,9 C 19,6 C 4,8 km/h (1 Bft) 100,00 %
09.08.2020 05:14 26,9 C 19,6 C 46 % 61 % 1018,2 hPa 0,0 l/m 1,6 km/h (1 Bft) O 90 0 min 0,000 mm 0,0 UV-I 0 W/m 11,9 C 19,6 C 3,2 km/h (1 Bft) 100,00 %
09.08.2020 05:13 26,9 C 19,6 C 46 % 61 % 1018,2 hPa 0,0 l/m 1,6 km/h (1 Bft) O 90 0 min 0,000 mm 0,0 UV-I 0 W/m 11,9 C 19,6 C 3,2 km/h (1 Bft) 100,00 %
09.08.2020 05:12 26,9 C 19,6 C 46 % 61 % 1018,2 hPa 0,0 l/m 3,2 km/h (1 Bft) O 90 0 min 0,000 mm 0,0 UV-I 0 W/m 11,9 C 19,6 C 4,8 km/h (1 Bft) 100,00 %
09.08.2020 05:11 26,9 C 19,6 C 46 % 62 % 1018,1 hPa 0,0 l/m 3,2 km/h (1 Bft) O 90 0 min 0,000 mm 0,0 UV-I 0 W/m 12,1 C 19,6 C 4,8 km/h (1 Bft) 95,65 %
09.08.2020 05:10 26,9 C 19,6 C 46 % 62 % 1018,2 hPa 0,0 l/m 1,6 km/h (1 Bft) O 90 0 min 0,000 mm 0,0 UV-I 0 W/m 12,1 C 19,6 C 3,2 km/h (1 Bft) 100,00 %
09.08.2020 05:09 26,9 C 19,6 C 46 % 62 % 1018,1 hPa 0,0 l/m 3,2 km/h (1 Bft) O 90 0 min 0,000 mm 0,0 UV-I 0 W/m 12,1 C 19,6 C 4,8 km/h (1 Bft) 100,00 %
09.08.2020 05:08 26,9 C 19,6 C 46 % 62 % 1018,1 hPa 0,0 l/m 1,6 km/h (1 Bft) O 90 0 min 0,000 mm 0,0 UV-I 0 W/m 12,1 C 19,6 C 3,2 km/h (1 Bft) 100,00 %
09.08.2020 05:07 26,9 C 19,6 C 46 % 62 % 1018,2 hPa 0,0 l/m 3,2 km/h (1 Bft) O 90 0 min 0,000 mm 0,0 UV-I 0 W/m 12,1 C 19,6 C 4,8 km/h (1 Bft) 100,00 %
09.08.2020 05:06 26,9 C 19,6 C 46 % 62 % 1018,2 hPa 0,0 l/m 3,2 km/h (1 Bft) O 90 0 min 0,000 mm 0,0 UV-I 0 W/m 12,1 C 19,6 C 4,8 km/h (1 Bft) 100,00 %
09.08.2020 05:05 26,9 C 19,6 C 46 % 62 % 1018,2 hPa 0,0 l/m 3,2 km/h (1 Bft) O 90 0 min 0,000 mm 0,0 UV-I 0 W/m 12,1 C 19,6 C 4,8 km/h (1 Bft) 100,00 %
09.08.2020 05:04 26,9 C 19,6 C 46 % 62 % 1018,2 hPa 0,0 l/m 3,2 km/h (1 Bft) O-SO 112 0 min 0,000 mm 0,0 UV-I 0 W/m 12,1 C 19,6 C 4,8 km/h (1 Bft) 100,00 %
09.08.2020 05:03 26,9 C 19,6 C 46 % 63 % 1018,2 hPa 0,0 l/m 3,2 km/h (1 Bft) O-SO 112 0 min 0,000 mm 0,0 UV-I 0 W/m 12,4 C 19,6 C 4,8 km/h (1 Bft) 100,00 %
09.08.2020 05:02 26,9 C 19,7 C 46 % 63 % 1018,2 hPa 0,0 l/m 3,2 km/h (1 Bft) O-SO 112 0 min 0,000 mm 0,0 UV-I 0 W/m 12,5 C 19,7 C 4,8 km/h (1 Bft) 100,00 %
09.08.2020 05:01 26,9 C 19,7 C 46 % 62 % 1018,1 hPa 0,0 l/m 3,2 km/h (1 Bft) O-SO 112 0 min 0,000 mm 0,0 UV-I 0 W/m 12,2 C 19,7 C 4,8 km/h (1 Bft) 100,00 %
09.08.2020 05:00 26,9 C 19,7 C 46 % 62 % 1018,1 hPa 0,0 l/m 1,6 km/h (1 Bft) O-SO 112 0 min 0,051 mm 0,0 UV-I 0 W/m 12,2 C 19,7 C 3,2 km/h (1 Bft) 100,00 %
09.08.2020 04:59 26,9 C 19,7 C 46 % 62 % 1018,2 hPa 0,0 l/m 3,2 km/h (1 Bft) O-SO 112 0 min 0,000 mm 0,0 UV-I 0 W/m 12,2 C 19,7 C 4,8 km/h (1 Bft) 100,00 %
09.08.2020 04:58 26,9 C 19,7 C 46 % 62 % 1018,2 hPa 0,0 l/m 3,2 km/h (1 Bft) O-SO 112 0 min 0,000 mm 0,0 UV-I 0 W/m 12,2 C 19,7 C 4,8 km/h (1 Bft) 100,00 %
09.08.2020 04:57 26,9 C 19,7 C 46 % 62 % 1018,1 hPa 0,0 l/m 3,2 km/h (1 Bft) O-SO 112 0 min 0,000 mm 0,0 UV-I 0 W/m 12,2 C 19,7 C 4,8 km/h (1 Bft) 100,00 %
09.08.2020 04:56 26,9 C 19,7 C 46 % 62 % 1018,2 hPa 0,0 l/m 1,6 km/h (1 Bft) O-SO 112 0 min 0,000 mm 0,0 UV-I 0 W/m 12,2 C 19,7 C 4,8 km/h (1 Bft) 100,00 %
09.08.2020 04:55 26,9 C 19,7 C 46 % 62 % 1018,3 hPa 0,0 l/m 1,6 km/h (1 Bft) O-SO 112 0 min 0,000 mm 0,0 UV-I 0 W/m 12,2 C 19,7 C 3,2 km/h (1 Bft) 100,00 %
09.08.2020 04:54 26,9 C 19,7 C 46 % 62 % 1018,2 hPa 0,0 l/m 1,6 km/h (1 Bft) O-SO 112 0 min 0,000 mm 0,0 UV-I 0 W/m 12,2 C 19,7 C 3,2 km/h (1 Bft) 100,00 %
09.08.2020 04:53 26,9 C 19,8 C 46 % 62 % 1018,1 hPa 0,0 l/m 3,2 km/h (1 Bft) O-SO 112 0 min 0,000 mm 0,0 UV-I 0 W/m 12,3 C 19,8 C 4,8 km/h (1 Bft) 100,00 %
09.08.2020 04:52 26,9 C 19,8 C 46 % 62 % 1018,2 hPa 0,0 l/m 3,2 km/h (1 Bft) O-SO 112 0 min 0,000 mm 0,0 UV-I 0 W/m 12,3 C 19,8 C 4,8 km/h (1 Bft) 100,00 %
09.08.2020 04:51 26,9 C 19,8 C 46 % 61 % 1018,0 hPa 0,0 l/m 1,6 km/h (1 Bft) O-SO 112 0 min 0,000 mm 0,0 UV-I 0 W/m 12,1 C 19,8 C 3,2 km/h (1 Bft) 100,00 %
09.08.2020 04:50 26,9 C 19,8 C 46 % 61 % 1018,1 hPa 0,0 l/m 3,2 km/h (1 Bft) O-SO 112 0 min 0,000 mm 0,0 UV-I 0 W/m 12,1 C 19,8 C 4,8 km/h (1 Bft) 100,00 %
09.08.2020 04:49 26,9 C 19,8 C 46 % 61 % 1018,2 hPa 0,0 l/m 3,2 km/h (1 Bft) O-SO 112 0 min 0,000 mm 0,0 UV-I 0 W/m 12,1 C 19,8 C 4,8 km/h (1 Bft) 95,65 %
09.08.2020 04:48 26,9 C 19,8 C 46 % 61 % 1018,1 hPa 0,0 l/m 1,6 km/h (1 Bft) O-SO 112 0 min 0,000 mm 0,0 UV-I 0 W/m 12,1 C 19,8 C 3,2 km/h (1 Bft) 100,00 %
09.08.2020 04:47 26,9 C 19,8 C 46 % 61 % 1018,3 hPa 0,0 l/m 3,2 km/h (1 Bft) O-SO 112 0 min 0,000 mm 0,0 UV-I 0 W/m 12,1 C 19,8 C 4,8 km/h (1 Bft) 100,00 %
09.08.2020 04:46 26,9 C 19,8 C 46 % 61 % 1018,1 hPa 0,0 l/m 1,6 km/h (1 Bft) O-SO 112 0 min 0,000 mm 0,0 UV-I 0 W/m 12,1 C 19,8 C 4,8 km/h (1 Bft) 100,00 %
09.08.2020 04:45 26,9 C 19,8 C 46 % 61 % 1018,2 hPa 0,0 l/m 1,6 km/h (1 Bft) O-SO 112 0 min 0,000 mm 0,0 UV-I 0 W/m 12,1 C 19,8 C 3,2 km/h (1 Bft) 100,00 %
09.08.2020 04:44 26,9 C 19,7 C 46 % 61 % 1018,2 hPa 0,0 l/m 1,6 km/h (1 Bft) O-SO 112 0 min 0,000 mm 0,0 UV-I 0 W/m 12,0 C 19,7 C 3,2 km/h (1 Bft) 100,00 %
09.08.2020 04:43 26,9 C 19,7 C 46 % 61 % 1018,2 hPa 0,0 l/m 1,6 km/h (1 Bft) O-SO 112 0 min 0,000 mm 0,0 UV-I 0 W/m 12,0 C 19,7 C 3,2 km/h (1 Bft) 100,00 %
09.08.2020 04:42 26,9 C 19,7 C 46 % 61 % 1018,1 hPa 0,0 l/m 1,6 km/h (1 Bft) O-SO 112 0 min 0,000 mm 0,0 UV-I 0 W/m 12,0 C 19,7 C 3,2 km/h (1 Bft) 95,65 %
09.08.2020 04:41 26,9 C 19,7 C 46 % 61 % 1018,2 hPa 0,0 l/m 1,6 km/h (1 Bft) O-SO 112 0 min 0,000 mm 0,0 UV-I 0 W/m 12,0 C 19,7 C 3,2 km/h (1 Bft) 100,00 %
09.08.2020 04:40 26,9 C 19,7 C 46 % 61 % 1018,2 hPa 0,0 l/m 1,6 km/h (1 Bft) O-SO 112 0 min 0,000 mm 0,0 UV-I 0 W/m 12,0 C 19,7 C 3,2 km/h (1 Bft) 100,00 %
09.08.2020 04:39 26,9 C 19,7 C 46 % 61 % 1018,2 hPa 0,0 l/m 3,2 km/h (1 Bft) O-SO 112 0 min 0,000 mm 0,0 UV-I 0 W/m 12,0 C 19,7 C 3,2 km/h (1 Bft) 100,00 %
09.08.2020 04:38 26,9 C 19,7 C 46 % 61 % 1018,2 hPa 0,0 l/m 1,6 km/h (1 Bft) O-SO 112 0 min 0,000 mm 0,0 UV-I 0 W/m 12,0 C 19,7 C 3,2 km/h (1 Bft) 95,65 %
09.08.2020 04:37 26,9 C 19,7 C 46 % 61 % 1018,2 hPa 0,0 l/m 1,6 km/h (1 Bft) O-SO 112 0 min 0,000 mm 0,0 UV-I 0 W/m 12,0 C 19,7 C 3,2 km/h (1 Bft) 100,00 %
09.08.2020 04:36 26,9 C 19,7 C 46 % 61 % 1018,2 hPa 0,0 l/m 1,6 km/h (1 Bft) O-SO 112 0 min 0,000 mm 0,0 UV-I 0 W/m 12,0 C 19,7 C 3,2 km/h (1 Bft) 100,00 %
09.08.2020 04:35 26,9 C 19,7 C 46 % 61 % 1018,2 hPa 0,0 l/m 1,6 km/h (1 Bft) O-SO 112 0 min 0,000 mm 0,0 UV-I 0 W/m 12,0 C 19,7 C 3,2 km/h (1 Bft) 100,00 %
09.08.2020 04:34 26,9 C 19,7 C 46 % 62 % 1018,2 hPa 0,0 l/m 3,2 km/h (1 Bft) O-SO 112 0 min 0,000 mm 0,0 UV-I 0 W/m 12,2 C 19,7 C 3,2 km/h (1 Bft) 100,00 %
09.08.2020 04:33 26,9 C 19,7 C 46 % 61 % 1018,3 hPa 0,0 l/m 1,6 km/h (1 Bft) O-SO 112 0 min 0,000 mm 0,0 UV-I 0 W/m 12,0 C 19,7 C 3,2 km/h (1 Bft) 100,00 %
09.08.2020 04:32 26,9 C 19,7 C 46 % 61 % 1018,3 hPa 0,0 l/m 1,6 km/h (1 Bft) O-SO 112 0 min 0,000 mm 0,0 UV-I 0 W/m 12,0 C 19,7 C 3,2 km/h (1 Bft) 100,00 %
09.08.2020 04:31 26,9 C 19,8 C 46 % 61 % 1018,2 hPa 0,0 l/m 3,2 km/h (1 Bft) O-SO 112 0 min 0,000 mm 0,0 UV-I 0 W/m 12,1 C 19,8 C 4,8 km/h (1 Bft) 95,65 %
09.08.2020 04:30 26,9 C 19,8 C 46 % 61 % 1018,3 hPa 0,0 l/m 3,2 km/h (1 Bft) O-SO 112 0 min 0,000 mm 0,0 UV-I 0 W/m 12,1 C 19,8 C 4,8 km/h (1 Bft) 100,00 %
09.08.2020 04:29 26,9 C 19,8 C 46 % 61 % 1018,3 hPa 0,0 l/m 1,6 km/h (1 Bft) O-SO 112 0 min 0,000 mm 0,0 UV-I 0 W/m 12,1 C 19,8 C 3,2 km/h (1 Bft) 100,00 %
09.08.2020 04:28 26,9 C 19,8 C 46 % 61 % 1018,3 hPa 0,0 l/m 1,6 km/h (1 Bft) O-SO 112 0 min 0,000 mm 0,0 UV-I 0 W/m 12,1 C 19,8 C 3,2 km/h (1 Bft) 100,00 %
09.08.2020 04:27 26,9 C 19,7 C 46 % 61 % 1018,2 hPa 0,0 l/m 1,6 km/h (1 Bft) O-SO 112 0 min 0,000 mm 0,0 UV-I 0 W/m 12,0 C 19,7 C 3,2 km/h (1 Bft) 100,00 %
09.08.2020 04:26 26,9 C 19,7 C 46 % 61 % 1018,3 hPa 0,0 l/m 1,6 km/h (1 Bft) O-SO 112 0 min 0,000 mm 0,0 UV-I 0 W/m 12,0 C 19,7 C 3,2 km/h (1 Bft) 91,30 %
09.08.2020 04:25 26,9 C 19,8 C 46 % 61 % 1018,3 hPa 0,0 l/m 1,6 km/h (1 Bft) O-SO 112 0 min 0,000 mm 0,0 UV-I 0 W/m 12,1 C 19,8 C 3,2 km/h (1 Bft) 95,65 %
09.08.2020 04:24 26,9 C 19,8 C 46 % 61 % 1018,3 hPa 0,0 l/m 1,6 km/h (1 Bft) O-SO 112 0 min 0,000 mm 0,0 UV-I 0 W/m 12,1 C 19,8 C 3,2 km/h (1 Bft) 100,00 %
09.08.2020 04:23 26,9 C 19,7 C 46 % 61 % 1018,3 hPa 0,0 l/m 1,6 km/h (1 Bft) O-SO 112 0 min 0,000 mm 0,0 UV-I 0 W/m 12,0 C 19,7 C 3,2 km/h (1 Bft) 100,00 %
09.08.2020 04:22 26,9 C 19,8 C 46 % 61 % 1018,3 hPa 0,0 l/m 1,6 km/h (1 Bft) O-SO 112 0 min 0,000 mm 0,0 UV-I 0 W/m 12,1 C 19,8 C 3,2 km/h (1 Bft) 100,00 %
09.08.2020 04:21 27,0 C 19,8 C 46 % 61 % 1018,3 hPa 0,0 l/m 1,6 km/h (1 Bft) O-SO 112 0 min 0,000 mm 0,0 UV-I 0 W/m 12,1 C 19,8 C 3,2 km/h (1 Bft) 91,30 %
09.08.2020 04:20 27,0 C 19,8 C 46 % 61 % 1018,3 hPa 0,0 l/m 1,6 km/h (1 Bft) O-SO 112 0 min 0,000 mm 0,0 UV-I 0 W/m 12,1 C 19,8 C 3,2 km/h (1 Bft) 100,00 %
09.08.2020 04:19 26,9 C 19,8 C 46 % 61 % 1018,3 hPa 0,0 l/m 1,6 km/h (1 Bft) O-SO 112 0 min 0,000 mm 0,0 UV-I 0 W/m 12,1 C 19,8 C 3,2 km/h (1 Bft) 100,00 %
09.08.2020 04:18 26,9 C 19,8 C 46 % 61 % 1018,3 hPa 0,0 l/m 1,6 km/h (1 Bft) O-SO 112 0 min 0,000 mm 0,0 UV-I 0 W/m 12,1 C 19,8 C 3,2 km/h (1 Bft) 100,00 %
09.08.2020 04:17 27,0 C 19,8 C 46 % 61 % 1018,3 hPa 0,0 l/m 1,6 km/h (1 Bft) O-SO 112 0 min 0,000 mm 0,0 UV-I 0 W/m 12,1 C 19,8 C 3,2 km/h (1 Bft) 100,00 %
09.08.2020 04:16 27,0 C 19,8 C 46 % 61 % 1018,3 hPa 0,0 l/m 1,6 km/h (1 Bft) O-SO 112 0 min 0,000 mm 0,0 UV-I 0 W/m 12,1 C 19,8 C 3,2 km/h (1 Bft) 100,00 %
09.08.2020 04:15 26,9 C 19,8 C 46 % 61 % 1018,3 hPa 0,0 l/m 1,6 km/h (1 Bft) O-SO 112 0 min 0,000 mm 0,0 UV-I 0 W/m 12,1 C 19,8 C 3,2 km/h (1 Bft) 100,00 %
09.08.2020 04:14 27,0 C 19,8 C 46 % 61 % 1018,3 hPa 0,0 l/m 1,6 km/h (1 Bft) O-SO 112 0 min 0,000 mm 0,0 UV-I 0 W/m 12,1 C 19,8 C 3,2 km/h (1 Bft) 100,00 %
09.08.2020 04:13 27,0 C 19,9 C 46 % 60 % 1018,3 hPa 0,0 l/m 1,6 km/h (1 Bft) O-SO 112 0 min 0,000 mm 0,0 UV-I 0 W/m 11,9 C 19,9 C 3,2 km/h (1 Bft) 100,00 %
09.08.2020 04:12 27,0 C 19,9 C 46 % 60 % 1018,3 hPa 0,0 l/m 1,6 km/h (1 Bft) O-SO 112 0 min 0,000 mm 0,0 UV-I 0 W/m 11,9 C 19,9 C 3,2 km/h (1 Bft) 100,00 %
09.08.2020 04:11 27,0 C 19,9 C 46 % 60 % 1018,3 hPa 0,0 l/m 1,6 km/h (1 Bft) O-SO 112 0 min 0,000 mm 0,0 UV-I 0 W/m 11,9 C 19,9 C 3,2 km/h (1 Bft) 100,00 %
09.08.2020 04:10 27,0 C 19,9 C 46 % 60 % 1018,3 hPa 0,0 l/m 1,6 km/h (1 Bft) O-SO 112 0 min 0,000 mm 0,0 UV-I 0 W/m 11,9 C 19,9 C 3,2 km/h (1 Bft) 100,00 %
09.08.2020 04:09 27,0 C 19,9 C 46 % 60 % 1018,3 hPa 0,0 l/m 1,6 km/h (1 Bft) O-SO 112 0 min 0,000 mm 0,0 UV-I 0 W/m 11,9 C 19,9 C 3,2 km/h (1 Bft) 95,65 %
09.08.2020 04:08 27,0 C 19,9 C 46 % 60 % 1018,3 hPa 0,0 l/m 1,6 km/h (1 Bft) O-SO 112 0 min 0,000 mm 0,0 UV-I 0 W/m 11,9 C 19,9 C 3,2 km/h (1 Bft) 100,00 %
09.08.2020 04:07 27,0 C 19,9 C 46 % 61 % 1018,3 hPa 0,0 l/m 1,6 km/h (1 Bft) O-SO 112 0 min 0,000 mm 0,0 UV-I 0 W/m 12,2 C 19,9 C 3,2 km/h (1 Bft) 91,30 %
09.08.2020 04:06 27,0 C 19,9 C 46 % 60 % 1018,3 hPa 0,0 l/m 1,6 km/h (1 Bft) O-SO 112 0 min 0,000 mm 0,0 UV-I 0 W/m 11,9 C 19,9 C 1,6 km/h (1 Bft) 100,00 %
09.08.2020 04:05 27,0 C 20,0 C 46 % 60 % 1018,3 hPa 0,0 l/m 1,6 km/h (1 Bft) O-SO 112 0 min 0,000 mm 0,0 UV-I 0 W/m 12,0 C 20,0 C 3,2 km/h (1 Bft) 100,00 %
09.08.2020 04:04 27,0 C 20,1 C 46 % 60 % 1018,3 hPa 0,0 l/m 1,6 km/h (1 Bft) O-SO 112 0 min 0,000 mm 0,0 UV-I 0 W/m 12,1 C 20,1 C 3,2 km/h (1 Bft) 100,00 %
09.08.2020 04:03 27,0 C 20,1 C 46 % 60 % 1018,3 hPa 0,0 l/m 1,6 km/h (1 Bft) O-SO 112 0 min 0,000 mm 0,0 UV-I 0 W/m 12,1 C 20,1 C 3,2 km/h (1 Bft) 100,00 %
09.08.2020 04:02 27,1 C 20,0 C 46 % 60 % 1018,3 hPa 0,0 l/m 1,6 km/h (1 Bft) O-SO 112 0 min 0,000 mm 0,0 UV-I 0 W/m 12,0 C 20,0 C 3,2 km/h (1 Bft) 100,00 %
09.08.2020 04:01 27,0 C 20,0 C 46 % 60 % 1018,3 hPa 0,0 l/m 1,6 km/h (1 Bft) O-SO 112 0 min 0,000 mm 0,0 UV-I 0 W/m 12,0 C 20,0 C 3,2 km/h (1 Bft) 95,65 %
09.08.2020 04:00 27,0 C 20,0 C 46 % 60 % 1018,3 hPa 0,0 l/m 1,6 km/h (1 Bft) O-SO 112 0 min 0,051 mm 0,0 UV-I 0 W/m 12,0 C 20,0 C 3,2 km/h (1 Bft) 100,00 %
09.08.2020 03:59 27,1 C 19,9 C 46 % 60 % 1018,3 hPa 0,0 l/m 1,6 km/h (1 Bft) O-SO 112 0 min 0,000 mm 0,0 UV-I 0 W/m 11,9 C 19,9 C 3,2 km/h (1 Bft) 100,00 %
09.08.2020 03:58 27,0 C 20,0 C 46 % 60 % 1018,3 hPa 0,0 l/m 1,6 km/h (1 Bft) O-SO 112 0 min 0,000 mm 0,0 UV-I 0 W/m 12,0 C 20,0 C 3,2 km/h (1 Bft) 100,00 %
09.08.2020 03:57 27,1 C 20,0 C 46 % 60 % 1018,3 hPa 0,0 l/m 1,6 km/h (1 Bft) O-SO 112 0 min 0,000 mm 0,0 UV-I 0 W/m 12,0 C 20,0 C 3,2 km/h (1 Bft) 100,00 %
09.08.2020 03:56 27,1 C 19,9 C 46 % 60 % 1018,3 hPa 0,0 l/m 1,6 km/h (1 Bft) O-SO 112 0 min 0,000 mm 0,0 UV-I 0 W/m 11,9 C 19,9 C 3,2 km/h (1 Bft) 100,00 %
09.08.2020 03:55 27,1 C 20,0 C 45 % 60 % 1018,3 hPa 0,0 l/m 1,6 km/h (1 Bft) O-SO 112 0 min 0,000 mm 0,0 UV-I 0 W/m 12,0 C 20,0 C 3,2 km/h (1 Bft) 100,00 %
09.08.2020 03:54 27,1 C 20,0 C 46 % 60 % 1018,3 hPa 0,0 l/m 1,6 km/h (1 Bft) O-SO 112 0 min 0,000 mm 0,0 UV-I 0 W/m 12,0 C 20,0 C 3,2 km/h (1 Bft) 100,00 %
09.08.2020 03:53 27,0 C 20,0 C 45 % 60 % 1018,3 hPa 0,0 l/m 1,6 km/h (1 Bft) O-SO 112 0 min 0,000 mm 0,0 UV-I 0 W/m 12,0 C 20,0 C 3,2 km/h (1 Bft) 95,65 %
09.08.2020 03:52 27,1 C 20,0 C 45 % 60 % 1018,3 hPa 0,0 l/m 1,6 km/h (1 Bft) O-SO 112 0 min 0,000 mm 0,0 UV-I 0 W/m 12,0 C 20,0 C 3,2 km/h (1 Bft) 100,00 %
09.08.2020 03:51 27,1 C 20,1 C 45 % 60 % 1018,3 hPa 0,0 l/m 1,6 km/h (1 Bft) O-SO 112 0 min 0,000 mm 0,0 UV-I 0 W/m 12,1 C 20,1 C 3,2 km/h (1 Bft) 100,00 %
09.08.2020 03:50 27,1 C 20,1 C 46 % 60 % 1018,3 hPa 0,0 l/m 1,6 km/h (1 Bft) O-SO 112 0 min 0,000 mm 0,0 UV-I 0 W/m 12,1 C 20,1 C 3,2 km/h (1 Bft) 100,00 %
09.08.2020 03:49 27,1 C 20,1 C 45 % 60 % 1018,3 hPa 0,0 l/m 1,6 km/h (1 Bft) O-SO 112 0 min 0,000 mm 0,0 UV-I 0 W/m 12,1 C 20,1 C 3,2 km/h (1 Bft) 100,00 %
09.08.2020 03:48 27,1 C 20,1 C 45 % 60 % 1018,3 hPa 0,0 l/m 1,6 km/h (1 Bft) O-SO 112 0 min 0,000 mm 0,0 UV-I 0 W/m 12,1 C 20,1 C 3,2 km/h (1 Bft) 100,00 %
09.08.2020 03:47 27,1 C 20,1 C 45 % 60 % 1018,2 hPa 0,0 l/m 1,6 km/h (1 Bft) O-SO 112 0 min 0,000 mm 0,0 UV-I 0 W/m 12,1 C 20,1 C 3,2 km/h (1 Bft) 100,00 %
09.08.2020 03:46 27,1 C 20,1 C 45 % 60 % 1018,3 hPa 0,0 l/m 1,6 km/h (1 Bft) O-SO 112 0 min 0,000 mm 0,0 UV-I 0 W/m 12,1 C 20,1 C 1,6 km/h (1 Bft) 100,00 %
09.08.2020 03:45 27,1 C 20,1 C 45 % 60 % 1018,3 hPa 0,0 l/m 1,6 km/h (1 Bft) O-SO 112 0 min 0,000 mm 0,0 UV-I 0 W/m 12,1 C 20,1 C 3,2 km/h (1 Bft) 100,00 %
09.08.2020 03:44 27,1 C 20,1 C 45 % 59 % 1018,3 hPa 0,0 l/m 1,6 km/h (1 Bft) O-SO 112 0 min 0,000 mm 0,0 UV-I 0 W/m 11,8 C 20,1 C 3,2 km/h (1 Bft) 100,00 %
09.08.2020 03:43 27,1 C 20,1 C 45 % 59 % 1018,3 hPa 0,0 l/m 1,6 km/h (1 Bft) O-SO 112 0 min 0,000 mm 0,0 UV-I 0 W/m 11,8 C 20,1 C 1,6 km/h (1 Bft) 100,00 %
09.08.2020 03:42 27,1 C 20,1 C 45 % 59 % 1018,3 hPa 0,0 l/m 1,6 km/h (1 Bft) O-SO 112 0 min 0,000 mm 0,0 UV-I 0 W/m 11,8 C 20,1 C 1,6 km/h (1 Bft) 100,00 %
09.08.2020 03:41 27,1 C 20,1 C 45 % 59 % 1018,3 hPa 0,0 l/m 1,6 km/h (1 Bft) O-SO 112 0 min 0,000 mm 0,0 UV-I 0 W/m 11,8 C 20,1 C 3,2 km/h (1 Bft) 100,00 %
09.08.2020 03:40 27,1 C 20,2 C 46 % 59 % 1018,3 hPa 0,0 l/m 1,6 km/h (1 Bft) O-SO 112 0 min 0,000 mm 0,0 UV-I 0 W/m 11,9 C 20,2 C 3,2 km/h (1 Bft) 100,00 %
09.08.2020 03:39 27,1 C 20,2 C 45 % 59 % 1018,4 hPa 0,0 l/m 1,6 km/h (1 Bft) O-SO 112 0 min 0,000 mm 0,0 UV-I 0 W/m 11,9 C 20,2 C 3,2 km/h (1 Bft) 100,00 %
09.08.2020 03:38 27,1 C 20,2 C 45 % 59 % 1018,3 hPa 0,0 l/m 1,6 km/h (1 Bft) O-SO 112 0 min 0,000 mm 0,0 UV-I 0 W/m 11,9 C 20,2 C 3,2 km/h (1 Bft) 95,65 %
09.08.2020 03:37 27,1 C 20,2 C 45 % 59 % 1018,3 hPa 0,0 l/m 1,6 km/h (1 Bft) O-SO 112 0 min 0,000 mm 0,0 UV-I 0 W/m 11,9 C 20,2 C 3,2 km/h (1 Bft) 100,00 %
09.08.2020 03:36 27,1 C 20,2 C 45 % 60 % 1018,3 hPa 0,0 l/m 1,6 km/h (1 Bft) O-SO 112 0 min 0,000 mm 0,0 UV-I 0 W/m 12,2 C 20,2 C 3,2 km/h (1 Bft) 100,00 %
09.08.2020 03:35 27,1 C 20,3 C 45 % 59 % 1018,3 hPa 0,0 l/m 1,6 km/h (1 Bft) O-SO 112 0 min 0,000 mm 0,0 UV-I 0 W/m 12,0 C 20,3 C 3,2 km/h (1 Bft) 100,00 %
09.08.2020 03:34 27,1 C 20,3 C 45 % 59 % 1018,3 hPa 0,0 l/m 1,6 km/h (1 Bft) O-SO 112 0 min 0,000 mm 0,0 UV-I 0 W/m 12,0 C 20,3 C 3,2 km/h (1 Bft) 100,00 %
09.08.2020 03:33 27,1 C 20,3 C 45 % 59 % 1018,3 hPa 0,0 l/m 1,6 km/h (1 Bft) O-SO 112 0 min 0,000 mm 0,0 UV-I 0 W/m 12,0 C 20,3 C 3,2 km/h (1 Bft) 95,65 %
09.08.2020 03:32 27,1 C 20,3 C 45 % 59 % 1018,2 hPa 0,0 l/m 1,6 km/h (1 Bft) O-SO 112 0 min 0,000 mm 0,0 UV-I 0 W/m 12,0 C 20,3 C 3,2 km/h (1 Bft) 100,00 %
09.08.2020 03:31 27,1 C 20,4 C 45 % 59 % 1018,3 hPa 0,0 l/m 1,6 km/h (1 Bft) O-SO 112 0 min 0,000 mm 0,0 UV-I 0 W/m 12,1 C 20,4 C 3,2 km/h (1 Bft) 100,00 %
09.08.2020 03:30 27,1 C 20,4 C 45 % 58 % 1018,4 hPa 0,0 l/m 1,6 km/h (1 Bft) O-SO 112 0 min 0,000 mm 0,0 UV-I 0 W/m 11,9 C 20,4 C 3,2 km/h (1 Bft) 100,00 %
09.08.2020 03:29 27,1 C 20,4 C 45 % 58 % 1018,3 hPa 0,0 l/m 1,6 km/h (1 Bft) O-SO 112 0 min 0,000 mm 0,0 UV-I 0 W/m 11,9 C 20,4 C 3,2 km/h (1 Bft) 100,00 %
09.08.2020 03:28 27,1 C 20,4 C 45 % 58 % 1018,4 hPa 0,0 l/m 1,6 km/h (1 Bft) O-SO 112 0 min 0,000 mm 0,0 UV-I 0 W/m 11,9 C 20,4 C 3,2 km/h (1 Bft) 91,30 %
09.08.2020 03:27 27,1 C 20,4 C 45 % 58 % 1018,3 hPa 0,0 l/m 1,6 km/h (1 Bft) O-SO 112 0 min 0,000 mm 0,0 UV-I 0 W/m 11,9 C 20,4 C 3,2 km/h (1 Bft) 100,00 %
09.08.2020 03:26 27,1 C 20,4 C 45 % 58 % 1018,3 hPa 0,0 l/m 1,6 km/h (1 Bft) O-SO 112 0 min 0,000 mm 0,0 UV-I 0 W/m 11,9 C 20,4 C 3,2 km/h (1 Bft) 100,00 %
09.08.2020 03:25 27,1 C 20,4 C 45 % 58 % 1018,4 hPa 0,0 l/m 1,6 km/h (1 Bft) O-SO 112 0 min 0,000 mm 0,0 UV-I 0 W/m 11,9 C 20,4 C 3,2 km/h (1 Bft) 95,65 %
09.08.2020 03:24 27,1 C 20,5 C 45 % 58 % 1018,3 hPa 0,0 l/m 1,6 km/h (1 Bft) O-SO 112 0 min 0,000 mm 0,0 UV-I 0 W/m 11,9 C 20,5 C 1,6 km/h (1 Bft) 100,00 %
09.08.2020 03:23 27,1 C 20,5 C 45 % 58 % 1018,3 hPa 0,0 l/m 1,6 km/h (1 Bft) O-SO 112 0 min 0,000 mm 0,0 UV-I 0 W/m 11,9 C 20,5 C 3,2 km/h (1 Bft) 100,00 %
09.08.2020 03:22 27,1 C 20,5 C 45 % 58 % 1018,4 hPa 0,0 l/m 1,6 km/h (1 Bft) O-SO 112 0 min 0,000 mm 0,0 UV-I 0 W/m 11,9 C 20,5 C 3,2 km/h (1 Bft) 100,00 %
09.08.2020 03:21 27,1 C 20,5 C 45 % 58 % 1018,4 hPa 0,0 l/m 1,6 km/h (1 Bft) O-SO 112 0 min 0,000 mm 0,0 UV-I 0 W/m 11,9 C 20,5 C 1,6 km/h (1 Bft) 100,00 %
09.08.2020 03:20 27,1 C 20,6 C 45 % 58 % 1018,3 hPa 0,0 l/m 1,6 km/h (1 Bft) O-SO 112 0 min 0,000 mm 0,0 UV-I 0 W/m 12,0 C 20,6 C 1,6 km/h (1 Bft) 95,65 %
09.08.2020 03:19 27,2 C 20,6 C 45 % 57 % 1018,3 hPa 0,0 l/m 1,6 km/h (1 Bft) O-SO 112 0 min 0,000 mm 0,0 UV-I 0 W/m 11,8 C 20,6 C 3,2 km/h (1 Bft) 100,00 %
09.08.2020 03:18 27,2 C 20,6 C 45 % 57 % 1018,3 hPa 0,0 l/m 1,6 km/h (1 Bft) O-SO 112 0 min 0,000 mm 0,0 UV-I 0 W/m 11,8 C 20,6 C 3,2 km/h (1 Bft) 100,00 %
09.08.2020 03:17 27,1 C 20,6 C 45 % 57 % 1018,3 hPa 0,0 l/m 1,6 km/h (1 Bft) O-SO 112 0 min 0,000 mm 0,0 UV-I 0 W/m 11,8 C 20,6 C 3,2 km/h (1 Bft) 100,00 %
09.08.2020 03:16 27,2 C 20,6 C 45 % 57 % 1018,3 hPa 0,0 l/m 0,0 km/h (0 Bft) O-SO 112 0 min 0,000 mm 0,0 UV-I 0 W/m 11,8 C 20,6 C 1,6 km/h (1 Bft) 95,65 %
09.08.2020 03:15 27,2 C 20,6 C 45 % 57 % 1018,3 hPa 0,0 l/m 1,6 km/h (1 Bft) O-SO 112 0 min 0,000 mm 0,0 UV-I 0 W/m 11,8 C 20,6 C 3,2 km/h (1 Bft) 95,65 %
09.08.2020 03:14 27,2 C 20,7 C 45 % 57 % 1018,3 hPa 0,0 l/m 0,0 km/h (0 Bft) O-SO 112 0 min 0,000 mm 0,0 UV-I 0 W/m 11,9 C 20,7 C 3,2 km/h (1 Bft) 100,00 %
09.08.2020 03:13 27,2 C 20,7 C 45 % 57 % 1018,4 hPa 0,0 l/m 1,6 km/h (1 Bft) O-SO 112 0 min 0,000 mm 0,0 UV-I 0 W/m 11,9 C 20,7 C 3,2 km/h (1 Bft) 100,00 %
09.08.2020 03:12 27,1 C 20,7 C 45 % 57 % 1018,3 hPa 0,0 l/m 1,6 km/h (1 Bft) O-SO 112 0 min 0,000 mm 0,0 UV-I 0 W/m 11,9 C 20,7 C 3,2 km/h (1 Bft) 100,00 %
09.08.2020 03:11 27,2 C 20,7 C 45 % 57 % 1018,4 hPa 0,0 l/m 1,6 km/h (1 Bft) O-SO 112 0 min 0,000 mm 0,0 UV-I 0 W/m 11,9 C 20,7 C 3,2 km/h (1 Bft) 100,00 %
09.08.2020 03:10 27,2 C 20,7 C 45 % 57 % 1018,4 hPa 0,0 l/m 1,6 km/h (1 Bft) O-SO 112 0 min 0,000 mm 0,0 UV-I 0 W/m 11,9 C 20,7 C 1,6 km/h (1 Bft) 100,00 %
09.08.2020 03:09 27,2 C 20,8 C 45 % 56 % 1018,4 hPa 0,0 l/m 1,6 km/h (1 Bft) O-SO 112 0 min 0,000 mm 0,0 UV-I 0 W/m 11,7 C 20,8 C 3,2 km/h (1 Bft) 100,00 %
09.08.2020 03:08 27,2 C 20,8 C 45 % 56 % 1018,3 hPa 0,0 l/m 1,6 km/h (1 Bft) O-SO 112 0 min 0,000 mm 0,0 UV-I 0 W/m 11,7 C 20,8 C 1,6 km/h (1 Bft) 100,00 %
09.08.2020 03:07 27,2 C 20,8 C 45 % 56 % 1018,4 hPa 0,0 l/m 1,6 km/h (1 Bft) O-SO 112 0 min 0,000 mm 0,0 UV-I 0 W/m 11,7 C 20,8 C 3,2 km/h (1 Bft) 100,00 %
09.08.2020 03:06 27,2 C 20,8 C 45 % 57 % 1018,4 hPa 0,0 l/m 1,6 km/h (1 Bft) O-SO 112 0 min 0,000 mm 0,0 UV-I 0 W/m 12,0 C 20,8 C 3,2 km/h (1 Bft) 100,00 %
09.08.2020 03:05 27,2 C 20,8 C 45 % 56 % 1018,3 hPa 0,0 l/m 0,0 km/h (0 Bft) O-SO 112 0 min 0,000 mm 0,0 UV-I 0 W/m 11,7 C 20,8 C 1,6 km/h (1 Bft) 100,00 %
09.08.2020 03:04 27,2 C 20,8 C 45 % 56 % 1018,4 hPa 0,0 l/m 1,6 km/h (1 Bft) O-SO 112 0 min 0,000 mm 0,0 UV-I 0 W/m 11,7 C 20,8 C 3,2 km/h (1 Bft) 100,00 %
09.08.2020 03:03 27,2 C 20,8 C 45 % 56 % 1018,3 hPa 0,0 l/m 1,6 km/h (1 Bft) O-SO 112 0 min 0,000 mm 0,0 UV-I 0 W/m 11,7 C 20,8 C 1,6 km/h (1 Bft) 100,00 %
09.08.2020 03:02 27,2 C 20,8 C 45 % 57 % 1018,3 hPa 0,0 l/m 0,0 km/h (0 Bft) O-SO 112 0 min 0,000 mm 0,0 UV-I 0 W/m 12,0 C 20,8 C 1,6 km/h (1 Bft) 100,00 %
09.08.2020 03:01 27,2 C 20,7 C 45 % 56 % 1018,3 hPa 0,0 l/m 1,6 km/h (1 Bft) O-SO 112 0 min 0,000 mm 0,0 UV-I 0 W/m 11,6 C 20,7 C 4,8 km/h (1 Bft) 95,65 %
09.08.2020 03:00 27,2 C 20,7 C 45 % 57 % 1018,3 hPa 0,0 l/m 0,0 km/h (0 Bft) SO 135 0 min 0,051 mm 0,0 UV-I 0 W/m 11,9 C 20,7 C 1,6 km/h (1 Bft) 100,00 %
09.08.2020 02:59 27,2 C 20,7 C 45 % 56 % 1018,3 hPa 0,0 l/m 0,0 km/h (0 Bft) SO 135 0 min 0,000 mm 0,0 UV-I 0 W/m 11,6 C 20,7 C 1,6 km/h (1 Bft) 100,00 %
09.08.2020 02:58 27,2 C 20,7 C 45 % 56 % 1018,3 hPa 0,0 l/m 1,6 km/h (1 Bft) SO 135 0 min 0,000 mm 0,0 UV-I 0 W/m 11,6 C 20,7 C 3,2 km/h (1 Bft) 100,00 %
09.08.2020 02:57 27,2 C 20,7 C 45 % 56 % 1018,3 hPa 0,0 l/m 1,6 km/h (1 Bft) SO 135 0 min 0,000 mm 0,0 UV-I 0 W/m 11,6 C 20,7 C 3,2 km/h (1 Bft) 100,00 %
09.08.2020 02:56 27,2 C 20,7 C 45 % 56 % 1018,3 hPa 0,0 l/m 1,6 km/h (1 Bft) SO 135 0 min 0,000 mm 0,0 UV-I 0 W/m 11,6 C 20,7 C 3,2 km/h (1 Bft) 100,00 %
09.08.2020 02:55 27,2 C 20,8 C 45 % 56 % 1018,3 hPa 0,0 l/m 1,6 km/h (1 Bft) SO 135 0 min 0,000 mm 0,0 UV-I 0 W/m 11,7 C 20,8 C 3,2 km/h (1 Bft) 100,00 %
09.08.2020 02:54 27,2 C 20,8 C 45 % 56 % 1018,4 hPa 0,0 l/m 1,6 km/h (1 Bft) SO 135 0 min 0,000 mm 0,0 UV-I 0 W/m 11,7 C 20,8 C 3,2 km/h (1 Bft) 100,00 %
09.08.2020 02:53 27,2 C 20,8 C 45 % 56 % 1018,3 hPa 0,0 l/m 1,6 km/h (1 Bft) SO 135 0 min 0,000 mm 0,0 UV-I 0 W/m 11,7 C 20,8 C 3,2 km/h (1 Bft) 100,00 %
09.08.2020 02:52 27,2 C 20,8 C 45 % 56 % 1018,3 hPa 0,0 l/m 1,6 km/h (1 Bft) SO 135 0 min 0,000 mm 0,0 UV-I 0 W/m 11,7 C 20,8 C 3,2 km/h (1 Bft) 100,00 %
09.08.2020 02:51 27,2 C 20,8 C 45 % 56 % 1018,3 hPa 0,0 l/m 1,6 km/h (1 Bft) SO 135 0 min 0,000 mm 0,0 UV-I 0 W/m 11,7 C 20,8 C 1,6 km/h (1 Bft) 100,00 %
09.08.2020 02:50 27,2 C 20,8 C 45 % 56 % 1018,3 hPa 0,0 l/m 1,6 km/h (1 Bft) SO 135 0 min 0,000 mm 0,0 UV-I 0 W/m 11,7 C 20,8 C 3,2 km/h (1 Bft) 95,65 %
09.08.2020 02:49 27,2 C 20,8 C 45 % 56 % 1018,3 hPa 0,0 l/m 1,6 km/h (1 Bft) SO 135 0 min 0,000 mm 0,0 UV-I 0 W/m 11,7 C 20,8 C 3,2 km/h (1 Bft) 100,00 %
09.08.2020 02:48 27,2 C 20,8 C 45 % 56 % 1018,3 hPa 0,0 l/m 1,6 km/h (1 Bft) SO 135 0 min 0,000 mm 0,0 UV-I 0 W/m 11,7 C 20,8 C 1,6 km/h (1 Bft) 100,00 %
09.08.2020 02:47 27,2 C 20,8 C 45 % 56 % 1018,3 hPa 0,0 l/m 1,6 km/h (1 Bft) SO 135 0 min 0,000 mm 0,0 UV-I 0 W/m 11,7 C 20,8 C 3,2 km/h (1 Bft) 100,00 %
09.08.2020 02:46 27,2 C 20,9 C 45 % 56 % 1018,4 hPa 0,0 l/m 1,6 km/h (1 Bft) SO 135 0 min 0,000 mm 0,0 UV-I 0 W/m 11,8 C 20,9 C 3,2 km/h (1 Bft) 100,00 %
09.08.2020 02:45 27,2 C 20,9 C 45 % 55 % 1018,4 hPa 0,0 l/m 1,6 km/h (1 Bft) SO 135 0 min 0,000 mm 0,0 UV-I 0 W/m 11,5 C 20,9 C 3,2 km/h (1 Bft) 100,00 %
09.08.2020 02:44 27,2 C 20,9 C 45 % 55 % 1018,3 hPa 0,0 l/m 1,6 km/h (1 Bft) SO 135 0 min 0,000 mm 0,0 UV-I 0 W/m 11,5 C 20,9 C 3,2 km/h (1 Bft) 91,30 %
09.08.2020 02:43 27,2 C 21,0 C 45 % 55 % 1018,4 hPa 0,0 l/m 1,6 km/h (1 Bft) SO 135 0 min 0,000 mm 0,0 UV-I 0 W/m 11,6 C 21,0 C 3,2 km/h (1 Bft) 100,00 %
09.08.2020 02:42 27,2 C 20,9 C 45 % 55 % 1018,3 hPa 0,0 l/m 1,6 km/h (1 Bft) SO 135 0 min 0,000 mm 0,0 UV-I 0 W/m 11,5 C 20,9 C 4,8 km/h (1 Bft) 100,00 %
09.08.2020 02:41 27,2 C 20,9 C 45 % 55 % 1018,4 hPa 0,0 l/m 1,6 km/h (1 Bft) SO 135 0 min 0,000 mm 0,0 UV-I 0 W/m 11,5 C 20,9 C 4,8 km/h (1 Bft) 100,00 %
09.08.2020 02:40 27,2 C 20,9 C 45 % 56 % 1018,4 hPa 0,0 l/m 1,6 km/h (1 Bft) SO 135 0 min 0,000 mm 0,0 UV-I 0 W/m 11,8 C 20,9 C 3,2 km/h (1 Bft) 100,00 %
09.08.2020 02:39 27,2 C 20,9 C 45 % 56 % 1018,3 hPa 0,0 l/m 1,6 km/h (1 Bft) SO 135 0 min 0,000 mm 0,0 UV-I 0 W/m 11,8 C 20,9 C 3,2 km/h (1 Bft) 100,00 %
09.08.2020 02:38 27,3 C 20,9 C 45 % 55 % 1018,4 hPa 0,0 l/m 0,0 km/h (0 Bft) SO 135 0 min 0,000 mm 0,0 UV-I 0 W/m 11,5 C 20,9 C 1,6 km/h (1 Bft) 100,00 %
09.08.2020 02:37 27,2 C 20,8 C 45 % 55 % 1018,3 hPa 0,0 l/m 1,6 km/h (1 Bft) SO 135 0 min 0,000 mm 0,0 UV-I 0 W/m 11,4 C 20,8 C 3,2 km/h (1 Bft) 100,00 %
09.08.2020 02:36 27,3 C 20,9 C 45 % 55 % 1018,3 hPa 0,0 l/m 1,6 km/h (1 Bft) SO 135 0 min 0,000 mm 0,0 UV-I 0 W/m 11,5 C 20,9 C 3,2 km/h (1 Bft) 100,00 %
09.08.2020 02:35 27,2 C 20,9 C 45 % 55 % 1018,3 hPa 0,0 l/m 1,6 km/h (1 Bft) SO 135 0 min 0,000 mm 0,0 UV-I 0 W/m 11,5 C 20,9 C 1,6 km/h (1 Bft) 100,00 %
09.08.2020 02:34 27,2 C 20,9 C 45 % 55 % 1018,4 hPa 0,0 l/m 1,6 km/h (1 Bft) SO 135 0 min 0,000 mm 0,0 UV-I 0 W/m 11,5 C 20,9 C 3,2 km/h (1 Bft) 100,00 %
09.08.2020 02:33 27,2 C 20,9 C 45 % 55 % 1018,4 hPa 0,0 l/m 1,6 km/h (1 Bft) SO 135 0 min 0,000 mm 0,0 UV-I 0 W/m 11,5 C 20,9 C 3,2 km/h (1 Bft) 100,00 %
09.08.2020 02:32 27,3 C 21,0 C 45 % 55 % 1018,3 hPa 0,0 l/m 1,6 km/h (1 Bft) SO 135 0 min 0,000 mm 0,0 UV-I 0 W/m 11,6 C 21,0 C 3,2 km/h (1 Bft) 95,65 %
09.08.2020 02:31 27,3 C 21,0 C 45 % 55 % 1018,3 hPa 0,0 l/m 1,6 km/h (1 Bft) SO 135 0 min 0,000 mm 0,0 UV-I 0 W/m 11,6 C 21,0 C 3,2 km/h (1 Bft) 100,00 %
09.08.2020 02:30 27,3 C 21,0 C 45 % 55 % 1018,4 hPa 0,0 l/m 1,6 km/h (1 Bft) SO 135 0 min 0,000 mm 0,0 UV-I 0 W/m 11,6 C 21,0 C 3,2 km/h (1 Bft) 95,65 %
09.08.2020 02:29 27,3 C 21,1 C 45 % 55 % 1018,4 hPa 0,0 l/m 0,0 km/h (0 Bft) SO 135 0 min 0,000 mm 0,0 UV-I 0 W/m 11,7 C 21,1 C 1,6 km/h (1 Bft) 100,00 %
09.08.2020 02:28 27,3 C 21,1 C 45 % 55 % 1018,4 hPa 0,0 l/m 1,6 km/h (1 Bft) SO 135 0 min 0,000 mm 0,0 UV-I 0 W/m 11,7 C 21,1 C 3,2 km/h (1 Bft) 100,00 %
09.08.2020 02:27 27,3 C 21,0 C 45 % 55 % 1018,4 hPa 0,0 l/m 1,6 km/h (1 Bft) SO 135 0 min 0,000 mm 0,0 UV-I 0 W/m 11,6 C 21,0 C 3,2 km/h (1 Bft) 100,00 %
09.08.2020 02:26 27,3 C 21,1 C 45 % 55 % 1018,4 hPa 0,0 l/m 1,6 km/h (1 Bft) SO 135 0 min 0,000 mm 0,0 UV-I 0 W/m 11,7 C 21,1 C 3,2 km/h (1 Bft) 95,65 %
09.08.2020 02:25 27,3 C 21,1 C 45 % 55 % 1018,4 hPa 0,0 l/m 1,6 km/h (1 Bft) SO 135 0 min 0,000 mm 0,0 UV-I 0 W/m 11,7 C 21,1 C 3,2 km/h (1 Bft) 100,00 %
09.08.2020 02:24 27,3 C 21,0 C 45 % 55 % 1018,3 hPa 0,0 l/m 0,0 km/h (0 Bft) SO 135 0 min 0,000 mm 0,0 UV-I 0 W/m 11,6 C 21,0 C 1,6 km/h (1 Bft) 100,00 %
09.08.2020 02:23 27,3 C 21,0 C 45 % 55 % 1018,4 hPa 0,0 l/m 1,6 km/h (1 Bft) SO 135 0 min 0,000 mm 0,0 UV-I 0 W/m 11,6 C 21,0 C 3,2 km/h (1 Bft) 100,00 %
09.08.2020 02:22 27,3 C 20,9 C 45 % 55 % 1018,4 hPa 0,0 l/m 1,6 km/h (1 Bft) S 180 0 min 0,000 mm 0,0 UV-I 0 W/m 11,5 C 20,9 C 3,2 km/h (1 Bft) 100,00 %
09.08.2020 02:21 27,3 C 20,9 C 45 % 55 % 1018,4 hPa 0,0 l/m 1,6 km/h (1 Bft) O 90 0 min 0,000 mm 0,0 UV-I 0 W/m 11,5 C 20,9 C 3,2 km/h (1 Bft) 100,00 %
09.08.2020 02:20 27,3 C 20,8 C 45 % 55 % 1018,5 hPa 0,0 l/m 1,6 km/h (1 Bft) O 90 0 min 0,000 mm 0,0 UV-I 0 W/m 11,4 C 20,8 C 3,2 km/h (1 Bft) 95,65 %
09.08.2020 02:19 27,3 C 20,8 C 45 % 55 % 1018,5 hPa 0,0 l/m 1,6 km/h (1 Bft) O 90 0 min 0,000 mm 0,0 UV-I 0 W/m 11,4 C 20,8 C 1,6 km/h (1 Bft) 100,00 %
09.08.2020 02:18 27,3 C 20,8 C 45 % 56 % 1018,5 hPa 0,0 l/m 1,6 km/h (1 Bft) O 90 0 min 0,000 mm 0,0 UV-I 0 W/m 11,7 C 20,8 C 3,2 km/h (1 Bft) 91,30 %
09.08.2020 02:17 27,3 C 20,8 C 45 % 56 % 1018,5 hPa 0,0 l/m 1,6 km/h (1 Bft) O 90 0 min 0,000 mm 0,0 UV-I 0 W/m 11,7 C 20,8 C 3,2 km/h (1 Bft) 100,00 %
09.08.2020 02:16 27,3 C 20,8 C 45 % 56 % 1018,4 hPa 0,0 l/m 1,6 km/h (1 Bft) O 90 0 min 0,000 mm 0,0 UV-I 0 W/m 11,7 C 20,8 C 3,2 km/h (1 Bft) 100,00 %
09.08.2020 02:15 27,3 C 20,8 C 45 % 56 % 1018,5 hPa 0,0 l/m 1,6 km/h (1 Bft) O 90 0 min 0,000 mm 0,0 UV-I 0 W/m 11,7 C 20,8 C 4,8 km/h (1 Bft) 100,00 %
09.08.2020 02:14 27,3 C 20,8 C 45 % 56 % 1018,6 hPa 0,0 l/m 1,6 km/h (1 Bft) O 90 0 min 0,000 mm 0,0 UV-I 0 W/m 11,7 C 20,8 C 3,2 km/h (1 Bft) 100,00 %
09.08.2020 02:13 27,3 C 20,8 C 45 % 56 % 1018,5 hPa 0,0 l/m 1,6 km/h (1 Bft) O 90 0 min 0,000 mm 0,0 UV-I 0 W/m 11,7 C 20,8 C 1,6 km/h (1 Bft) 100,00 %
09.08.2020 02:12 27,3 C 20,8 C 45 % 56 % 1018,6 hPa 0,0 l/m 1,6 km/h (1 Bft) O 90 0 min 0,000 mm 0,0 UV-I 0 W/m 11,7 C 20,8 C 3,2 km/h (1 Bft) 100,00 %
09.08.2020 02:11 27,3 C 20,8 C 45 % 56 % 1018,5 hPa 0,0 l/m 1,6 km/h (1 Bft) O 90 0 min 0,000 mm 0,0 UV-I 0 W/m 11,7 C 20,8 C 3,2 km/h (1 Bft) 100,00 %
09.08.2020 02:10 27,3 C 20,8 C 45 % 56 % 1018,5 hPa 0,0 l/m 1,6 km/h (1 Bft) O 90 0 min 0,000 mm 0,0 UV-I 0 W/m 11,7 C 20,8 C 3,2 km/h (1 Bft) 100,00 %
09.08.2020 02:09 27,3 C 20,8 C 45 % 56 % 1018,5 hPa 0,0 l/m 1,6 km/h (1 Bft) O 90 0 min 0,000 mm 0,0 UV-I 0 W/m 11,7 C 20,8 C 3,2 km/h (1 Bft) 95,65 %
09.08.2020 02:08 27,3 C 20,8 C 45 % 56 % 1018,6 hPa 0,0 l/m 3,2 km/h (1 Bft) O 90 0 min 0,000 mm 0,0 UV-I 0 W/m 11,7 C 20,8 C 3,2 km/h (1 Bft) 100,00 %
09.08.2020 02:07 27,3 C 20,8 C 45 % 56 % 1018,6 hPa 0,0 l/m 1,6 km/h (1 Bft) O 90 0 min 0,000 mm 0,0 UV-I 0 W/m 11,7 C 20,8 C 3,2 km/h (1 Bft) 100,00 %
09.08.2020 02:06 27,3 C 20,8 C 45 % 56 % 1018,6 hPa 0,0 l/m 1,6 km/h (1 Bft) O 90 0 min 0,000 mm 0,0 UV-I 0 W/m 11,7 C 20,8 C 1,6 km/h (1 Bft) 95,65 %
09.08.2020 02:05 27,3 C 20,8 C 45 % 56 % 1018,5 hPa 0,0 l/m 1,6 km/h (1 Bft) O 90 0 min 0,000 mm 0,0 UV-I 0 W/m 11,7 C 20,8 C 3,2 km/h (1 Bft) 100,00 %
09.08.2020 02:04 27,3 C 20,8 C 45 % 56 % 1018,6 hPa 0,0 l/m 1,6 km/h (1 Bft) O 90 0 min 0,000 mm 0,0 UV-I 0 W/m 11,7 C 20,8 C 3,2 km/h (1 Bft) 95,65 %
09.08.2020 02:03 27,3 C 20,8 C 45 % 56 % 1018,6 hPa 0,0 l/m 1,6 km/h (1 Bft) O 90 0 min 0,000 mm 0,0 UV-I 0 W/m 11,7 C 20,8 C 3,2 km/h (1 Bft) 95,65 %
09.08.2020 02:02 27,3 C 20,7 C 45 % 56 % 1018,5 hPa 0,0 l/m 3,2 km/h (1 Bft) O 90 0 min 0,000 mm 0,0 UV-I 0 W/m 11,6 C 20,7 C 3,2 km/h (1 Bft) 100,00 %
09.08.2020 02:01 27,3 C 20,8 C 45 % 56 % 1018,6 hPa 0,0 l/m 1,6 km/h (1 Bft) O 90 0 min 0,000 mm 0,0 UV-I 0 W/m 11,7 C 20,8 C 3,2 km/h (1 Bft) 100,00 %
09.08.2020 02:00 27,3 C 20,8 C 45 % 56 % 1018,6 hPa 0,0 l/m 1,6 km/h (1 Bft) O 90 0 min 0,051 mm 0,0 UV-I 0 W/m 11,7 C 20,8 C 3,2 km/h (1 Bft) 100,00 %
09.08.2020 01:59 27,3 C 20,8 C 45 % 56 % 1018,6 hPa 0,0 l/m 1,6 km/h (1 Bft) O 90 0 min 0,000 mm 0,0 UV-I 0 W/m 11,7 C 20,8 C 3,2 km/h (1 Bft) 100,00 %
09.08.2020 01:58 27,3 C 20,7 C 45 % 57 % 1018,6 hPa 0,0 l/m 1,6 km/h (1 Bft) O 90 0 min 0,000 mm 0,0 UV-I 0 W/m 11,9 C 20,7 C 3,2 km/h (1 Bft) 100,00 %
09.08.2020 01:57 27,3 C 20,8 C 45 % 56 % 1018,6 hPa 0,0 l/m 1,6 km/h (1 Bft) O 90 0 min 0,000 mm 0,0 UV-I 0 W/m 11,7 C 20,8 C 4,8 km/h (1 Bft) 95,65 %
09.08.2020 01:56 27,3 C 20,8 C 45 % 56 % 1018,7 hPa 0,0 l/m 1,6 km/h (1 Bft) O 90 0 min 0,000 mm 0,0 UV-I 0 W/m 11,7 C 20,8 C 3,2 km/h (1 Bft) 95,65 %
09.08.2020 01:55 27,3 C 20,8 C 45 % 56 % 1018,7 hPa 0,0 l/m 1,6 km/h (1 Bft) O 90 0 min 0,000 mm 0,0 UV-I 0 W/m 11,7 C 20,8 C 4,8 km/h (1 Bft) 100,00 %
09.08.2020 01:54 27,3 C 20,8 C 45 % 56 % 1018,7 hPa 0,0 l/m 3,2 km/h (1 Bft) O 90 0 min 0,000 mm 0,0 UV-I 0 W/m 11,7 C 20,8 C 4,8 km/h (1 Bft) 100,00 %
09.08.2020 01:53 27,3 C 20,8 C 45 % 56 % 1018,7 hPa 0,0 l/m 1,6 km/h (1 Bft) O-SO 112 0 min 0,000 mm 0,0 UV-I 0 W/m 11,7 C 20,8 C 3,2 km/h (1 Bft) 100,00 %
09.08.2020 01:52 27,3 C 20,8 C 45 % 56 % 1018,7 hPa 0,0 l/m 1,6 km/h (1 Bft) O-SO 112 0 min 0,000 mm 0,0 UV-I 0 W/m 11,7 C 20,8 C 3,2 km/h (1 Bft) 100,00 %
09.08.2020 01:51 27,3 C 20,8 C 45 % 56 % 1018,6 hPa 0,0 l/m 1,6 km/h (1 Bft) O-SO 112 0 min 0,000 mm 0,0 UV-I 0 W/m 11,7 C 20,8 C 3,2 km/h (1 Bft) 100,00 %
09.08.2020 01:50 27,3 C 20,8 C 45 % 56 % 1018,7 hPa 0,0 l/m 1,6 km/h (1 Bft) O-SO 112 0 min 0,000 mm 0,0 UV-I 0 W/m 11,7 C 20,8 C 3,2 km/h (1 Bft) 100,00 %
09.08.2020 01:49 27,4 C 20,8 C 45 % 56 % 1018,7 hPa 0,0 l/m 1,6 km/h (1 Bft) O-SO 112 0 min 0,000 mm 0,0 UV-I 0 W/m 11,7 C 20,8 C 3,2 km/h (1 Bft) 95,65 %
09.08.2020 01:48 27,4 C 20,8 C 45 % 56 % 1018,7 hPa 0,0 l/m 1,6 km/h (1 Bft) O-SO 112 0 min 0,000 mm 0,0 UV-I 0 W/m 11,7 C 20,8 C 3,2 km/h (1 Bft) 100,00 %
09.08.2020 01:47 27,4 C 20,8 C 45 % 56 % 1018,7 hPa 0,0 l/m 1,6 km/h (1 Bft) O-SO 112 0 min 0,000 mm 0,0 UV-I 0 W/m 11,7 C 20,8 C 3,2 km/h (1 Bft) 100,00 %
09.08.2020 01:46 27,4 C 20,8 C 45 % 56 % 1018,7 hPa 0,0 l/m 1,6 km/h (1 Bft) O-SO 112 0 min 0,000 mm 0,0 UV-I 0 W/m 11,7 C 20,8 C 3,2 km/h (1 Bft) 100,00 %
09.08.2020 01:45 27,4 C 20,8 C 45 % 56 % 1018,7 hPa 0,0 l/m 1,6 km/h (1 Bft) O-SO 112 0 min 0,000 mm 0,0 UV-I 0 W/m 11,7 C 20,8 C 3,2 km/h (1 Bft) 100,00 %
09.08.2020 01:44 27,4 C 20,8 C 45 % 56 % 1018,7 hPa 0,0 l/m 1,6 km/h (1 Bft) O-SO 112 0 min 0,000 mm 0,0 UV-I 0 W/m 11,7 C 20,8 C 1,6 km/h (1 Bft) 100,00 %
09.08.2020 01:43 27,4 C 20,8 C 45 % 56 % 1018,7 hPa 0,0 l/m 1,6 km/h (1 Bft) O-SO 112 0 min 0,000 mm 0,0 UV-I 0 W/m 11,7 C 20,8 C 3,2 km/h (1 Bft) 100,00 %
09.08.2020 01:42 27,4 C 20,8 C 45 % 56 % 1018,7 hPa 0,0 l/m 1,6 km/h (1 Bft) O-SO 112 0 min 0,000 mm 0,0 UV-I 0 W/m 11,7 C 20,8 C 3,2 km/h (1 Bft) 95,65 %
09.08.2020 01:41 27,4 C 20,8 C 45 % 56 % 1018,8 hPa 0,0 l/m 1,6 km/h (1 Bft) O-SO 112 0 min 0,000 mm 0,0 UV-I 0 W/m 11,7 C 20,8 C 4,8 km/h (1 Bft) 100,00 %
09.08.2020 01:40 27,4 C 20,8 C 45 % 56 % 1018,8 hPa 0,0 l/m 1,6 km/h (1 Bft) O-SO 112 0 min 0,000 mm 0,0 UV-I 0 W/m 11,7 C 20,8 C 3,2 km/h (1 Bft) 95,65 %
09.08.2020 01:39 27,4 C 20,8 C 45 % 56 % 1018,7 hPa 0,0 l/m 1,6 km/h (1 Bft) O-SO 112 0 min 0,000 mm 0,0 UV-I 0 W/m 11,7 C 20,8 C 3,2 km/h (1 Bft) 100,00 %
09.08.2020 01:38 27,4 C 20,8 C 45 % 56 % 1018,7 hPa 0,0 l/m 1,6 km/h (1 Bft) O-SO 112 0 min 0,000 mm 0,0 UV-I 0 W/m 11,7 C 20,8 C 3,2 km/h (1 Bft) 100,00 %
09.08.2020 01:37 27,4 C 20,8 C 45 % 56 % 1018,8 hPa 0,0 l/m 1,6 km/h (1 Bft) O-SO 112 0 min 0,000 mm 0,0 UV-I 0 W/m 11,7 C 20,8 C 3,2 km/h (1 Bft) 100,00 %
09.08.2020 01:36 27,4 C 20,8 C 45 % 56 % 1018,7 hPa 0,0 l/m 1,6 km/h (1 Bft) O-SO 112 0 min 0,000 mm 0,0 UV-I 0 W/m 11,7 C 20,8 C 3,2 km/h (1 Bft) 100,00 %
09.08.2020 01:35 27,4 C 20,8 C 45 % 56 % 1018,8 hPa 0,0 l/m 1,6 km/h (1 Bft) O-SO 112 0 min 0,000 mm 0,0 UV-I 0 W/m 11,7 C 20,8 C 3,2 km/h (1 Bft) 95,65 %
09.08.2020 01:34 27,4 C 20,8 C 45 % 56 % 1018,7 hPa 0,0 l/m 1,6 km/h (1 Bft) O-SO 112 0 min 0,000 mm 0,0 UV-I 0 W/m 11,7 C 20,8 C 1,6 km/h (1 Bft) 100,00 %
09.08.2020 01:33 27,4 C 20,8 C 45 % 56 % 1018,8 hPa 0,0 l/m 3,2 km/h (1 Bft) O-SO 112 0 min 0,000 mm 0,0 UV-I 0 W/m 11,7 C 20,8 C 3,2 km/h (1 Bft) 100,00 %
09.08.2020 01:32 27,4 C 20,8 C 45 % 56 % 1018,7 hPa 0,0 l/m 1,6 km/h (1 Bft) O-SO 112 0 min 0,000 mm 0,0 UV-I 0 W/m 11,7 C 20,8 C 3,2 km/h (1 Bft) 95,65 %
09.08.2020 01:31 27,4 C 20,8 C 45 % 57 % 1018,7 hPa 0,0 l/m 1,6 km/h (1 Bft) O-SO 112 0 min 0,000 mm 0,0 UV-I 0 W/m 12,0 C 20,8 C 1,6 km/h (1 Bft) 100,00 %
09.08.2020 01:30 27,4 C 20,8 C 45 % 56 % 1018,7 hPa 0,0 l/m 1,6 km/h (1 Bft) O-SO 112 0 min 0,000 mm 0,0 UV-I 0 W/m 11,7 C 20,8 C 3,2 km/h (1 Bft) 100,00 %
09.08.2020 01:29 27,4 C 20,8 C 45 % 57 % 1018,7 hPa 0,0 l/m 1,6 km/h (1 Bft) O-SO 112 0 min 0,000 mm 0,0 UV-I 0 W/m 12,0 C 20,8 C 3,2 km/h (1 Bft) 100,00 %
09.08.2020 01:28 27,4 C 20,8 C 45 % 56 % 1018,8 hPa 0,0 l/m 1,6 km/h (1 Bft) O-SO 112 0 min 0,000 mm 0,0 UV-I 0 W/m 11,7 C 20,8 C 3,2 km/h (1 Bft) 100,00 %
09.08.2020 01:27 27,4 C 20,8 C 45 % 57 % 1018,7 hPa 0,0 l/m 1,6 km/h (1 Bft) O-SO 112 0 min 0,000 mm 0,0 UV-I 0 W/m 12,0 C 20,8 C 3,2 km/h (1 Bft) 100,00 %
09.08.2020 01:26 27,4 C 20,8 C 45 % 57 % 1018,8 hPa 0,0 l/m 3,2 km/h (1 Bft) O-SO 112 0 min 0,000 mm 0,0 UV-I 0 W/m 12,0 C 20,8 C 4,8 km/h (1 Bft) 100,00 %
09.08.2020 01:25 27,5 C 20,9 C 45 % 57 % 1018,7 hPa 0,0 l/m 1,6 km/h (1 Bft) O-SO 112 0 min 0,000 mm 0,0 UV-I 0 W/m 12,1 C 20,9 C 3,2 km/h (1 Bft) 100,00 %
09.08.2020 01:24 27,4 C 20,9 C 45 % 57 % 1018,7 hPa 0,0 l/m 1,6 km/h (1 Bft) O-SO 112 0 min 0,000 mm 0,0 UV-I 0 W/m 12,1 C 20,9 C 3,2 km/h (1 Bft) 100,00 %
09.08.2020 01:23 27,5 C 20,9 C 45 % 56 % 1018,8 hPa 0,0 l/m 1,6 km/h (1 Bft) O-SO 112 0 min 0,000 mm 0,0 UV-I 0 W/m 11,8 C 20,9 C 3,2 km/h (1 Bft) 91,30 %
09.08.2020 01:22 27,4 C 20,9 C 45 % 57 % 1018,8 hPa 0,0 l/m 3,2 km/h (1 Bft) SO 135 0 min 0,000 mm 0,0 UV-I 0 W/m 12,1 C 20,9 C 4,8 km/h (1 Bft) 100,00 %
09.08.2020 01:21 27,5 C 20,9 C 45 % 57 % 1018,8 hPa 0,0 l/m 1,6 km/h (1 Bft) SO 135 0 min 0,000 mm 0,0 UV-I 0 W/m 12,1 C 20,9 C 3,2 km/h (1 Bft) 100,00 %
09.08.2020 01:20 27,4 C 20,9 C 45 % 57 % 1018,8 hPa 0,0 l/m 1,6 km/h (1 Bft) SO 135 0 min 0,000 mm 0,0 UV-I 0 W/m 12,1 C 20,9 C 3,2 km/h (1 Bft) 95,65 %
09.08.2020 01:19 27,5 C 20,9 C 45 % 57 % 1018,7 hPa 0,0 l/m 1,6 km/h (1 Bft) SO 135 0 min 0,000 mm 0,0 UV-I 0 W/m 12,1 C 20,9 C 1,6 km/h (1 Bft) 100,00 %
09.08.2020 01:18 27,5 C 20,9 C 45 % 57 % 1018,8 hPa 0,0 l/m 1,6 km/h (1 Bft) SO 135 0 min 0,000 mm 0,0 UV-I 0 W/m 12,1 C 20,9 C 3,2 km/h (1 Bft) 100,00 %
09.08.2020 01:17 27,5 C 20,9 C 45 % 57 % 1018,7 hPa 0,0 l/m 1,6 km/h (1 Bft) SO 135 0 min 0,000 mm 0,0 UV-I 0 W/m 12,1 C 20,9 C 1,6 km/h (1 Bft) 100,00 %
09.08.2020 01:16 27,5 C 20,9 C 45 % 57 % 1018,8 hPa 0,0 l/m 0,0 km/h (0 Bft) SO 135 0 min 0,000 mm 0,0 UV-I 0 W/m 12,1 C 20,9 C 1,6 km/h (1 Bft) 100,00 %
09.08.2020 01:15 27,5 C 20,9 C 45 % 58 % 1018,8 hPa 0,0 l/m 1,6 km/h (1 Bft) SO 135 0 min 0,000 mm 0,0 UV-I 0 W/m 12,3 C 20,9 C 3,2 km/h (1 Bft) 100,00 %
09.08.2020 01:14 27,5 C 20,9 C 45 % 58 % 1018,8 hPa 0,0 l/m 1,6 km/h (1 Bft) SO 135 0 min 0,000 mm 0,0 UV-I 0 W/m 12,3 C 20,9 C 3,2 km/h (1 Bft) 100,00 %
09.08.2020 01:13 27,5 C 20,9 C 45 % 58 % 1018,7 hPa 0,0 l/m 1,6 km/h (1 Bft) SO 135 0 min 0,000 mm 0,0 UV-I 0 W/m 12,3 C 20,9 C 1,6 km/h (1 Bft) 100,00 %
09.08.2020 01:12 27,5 C 20,9 C 45 % 58 % 1018,9 hPa 0,0 l/m 1,6 km/h (1 Bft) SO 135 0 min 0,000 mm 0,0 UV-I 0 W/m 12,3 C 20,9 C 3,2 km/h (1 Bft) 100,00 %
09.08.2020 01:11 27,5 C 20,9 C 45 % 58 % 1018,7 hPa 0,0 l/m 1,6 km/h (1 Bft) SO 135 0 min 0,000 mm 0,0 UV-I 0 W/m 12,3 C 20,9 C 3,2 km/h (1 Bft) 95,65 %
09.08.2020 01:10 27,5 C 20,9 C 45 % 58 % 1018,8 hPa 0,0 l/m 1,6 km/h (1 Bft) SO 135 0 min 0,000 mm 0,0 UV-I 0 W/m 12,3 C 20,9 C 3,2 km/h (1 Bft) 100,00 %
09.08.2020 01:09 27,6 C 20,9 C 45 % 58 % 1018,9 hPa 0,0 l/m 1,6 km/h (1 Bft) SO 135 0 min 0,000 mm 0,0 UV-I 0 W/m 12,3 C 20,9 C 3,2 km/h (1 Bft) 100,00 %
09.08.2020 01:08 27,6 C 20,9 C 45 % 58 % 1018,9 hPa 0,0 l/m 1,6 km/h (1 Bft) SO 135 0 min 0,000 mm 0,0 UV-I 0 W/m 12,3 C 20,9 C 3,2 km/h (1 Bft) 95,65 %
09.08.2020 01:07 27,6 C 20,9 C 45 % 58 % 1018,9 hPa 0,0 l/m 1,6 km/h (1 Bft) SO 135 0 min 0,000 mm 0,0 UV-I 0 W/m 12,3 C 20,9 C 3,2 km/h (1 Bft) 100,00 %
09.08.2020 01:06 27,5 C 20,8 C 45 % 58 % 1018,9 hPa 0,0 l/m 1,6 km/h (1 Bft) SO 135 0 min 0,000 mm 0,0 UV-I 0 W/m 12,2 C 20,8 C 3,2 km/h (1 Bft) 100,00 %
09.08.2020 01:05 27,6 C 20,9 C 45 % 58 % 1018,8 hPa 0,0 l/m 1,6 km/h (1 Bft) SO 135 0 min 0,000 mm 0,0 UV-I 0 W/m 12,3 C 20,9 C 3,2 km/h (1 Bft) 100,00 %
09.08.2020 01:04 27,6 C 20,9 C 45 % 58 % 1018,8 hPa 0,0 l/m 1,6 km/h (1 Bft) SO 135 0 min 0,000 mm 0,0 UV-I 0 W/m 12,3 C 20,9 C 3,2 km/h (1 Bft) 100,00 %
09.08.2020 01:03 27,6 C 20,9 C 45 % 59 % 1018,9 hPa 0,0 l/m 1,6 km/h (1 Bft) SO 135 0 min 0,000 mm 0,0 UV-I 0 W/m 12,6 C 20,9 C 3,2 km/h (1 Bft) 100,00 %
09.08.2020 01:02 27,6 C 20,9 C 45 % 58 % 1018,9 hPa 0,0 l/m 0,0 km/h (0 Bft) SO 135 0 min 0,000 mm 0,0 UV-I 0 W/m 12,3 C 20,9 C 1,6 km/h (1 Bft) 100,00 %
09.08.2020 01:01 27,6 C 20,9 C 45 % 59 % 1018,9 hPa 0,0 l/m 1,6 km/h (1 Bft) SO 135 0 min 0,000 mm 0,0 UV-I 0 W/m 12,6 C 20,9 C 3,2 km/h (1 Bft) 100,00 %
09.08.2020 01:00 27,6 C 20,9 C 45 % 59 % 1018,9 hPa 0,0 l/m 1,6 km/h (1 Bft) SO 135 0 min 0,051 mm 0,0 UV-I 0 W/m 12,6 C 20,9 C 3,2 km/h (1 Bft) 100,00 %
09.08.2020 00:59 27,6 C 20,9 C 45 % 58 % 1018,9 hPa 0,0 l/m 1,6 km/h (1 Bft) SO 135 0 min 0,000 mm 0,0 UV-I 0 W/m 12,3 C 20,9 C 3,2 km/h (1 Bft) 100,00 %
09.08.2020 00:58 27,6 C 20,9 C 45 % 59 % 1018,9 hPa 0,0 l/m 1,6 km/h (1 Bft) O 90 0 min 0,000 mm 0,0 UV-I 0 W/m 12,6 C 20,9 C 3,2 km/h (1 Bft) 95,65 %
09.08.2020 00:57 27,6 C 20,8 C 45 % 59 % 1019,0 hPa 0,0 l/m 1,6 km/h (1 Bft) O 90 0 min 0,000 mm 0,0 UV-I 0 W/m 12,5 C 20,8 C 3,2 km/h (1 Bft) 100,00 %
09.08.2020 00:56 27,6 C 20,8 C 45 % 59 % 1018,9 hPa 0,0 l/m 1,6 km/h (1 Bft) O 90 0 min 0,000 mm 0,0 UV-I 0 W/m 12,5 C 20,8 C 3,2 km/h (1 Bft) 100,00 %
09.08.2020 00:55 27,6 C 20,8 C 45 % 59 % 1018,9 hPa 0,0 l/m 1,6 km/h (1 Bft) O 90 0 min 0,000 mm 0,0 UV-I 0 W/m 12,5 C 20,8 C 3,2 km/h (1 Bft) 100,00 %
09.08.2020 00:54 27,6 C 20,7 C 45 % 59 % 1018,9 hPa 0,0 l/m 1,6 km/h (1 Bft) O 90 0 min 0,000 mm 0,0 UV-I 0 W/m 12,4 C 20,7 C 3,2 km/h (1 Bft) 100,00 %
09.08.2020 00:53 27,6 C 20,7 C 45 % 60 % 1019,0 hPa 0,0 l/m 1,6 km/h (1 Bft) O 90 0 min 0,000 mm 0,0 UV-I 0 W/m 12,7 C 20,7 C 4,8 km/h (1 Bft) 100,00 %
09.08.2020 00:52 27,6 C 20,7 C 45 % 59 % 1019,0 hPa 0,0 l/m 1,6 km/h (1 Bft) O 90 0 min 0,000 mm 0,0 UV-I 0 W/m 12,4 C 20,7 C 3,2 km/h (1 Bft) 91,30 %
09.08.2020 00:51 27,6 C 20,7 C 45 % 59 % 1019,0 hPa 0,0 l/m 3,2 km/h (1 Bft) O 90 0 min 0,000 mm 0,0 UV-I 0 W/m 12,4 C 20,7 C 3,2 km/h (1 Bft) 95,65 %
09.08.2020 00:50 27,6 C 20,6 C 45 % 59 % 1018,9 hPa 0,0 l/m 1,6 km/h (1 Bft) O 90 0 min 0,000 mm 0,0 UV-I 0 W/m 12,3 C 20,6 C 3,2 km/h (1 Bft) 100,00 %
09.08.2020 00:49 27,6 C 20,6 C 45 % 59 % 1018,9 hPa 0,0 l/m 3,2 km/h (1 Bft) O 90 0 min 0,000 mm 0,0 UV-I 0 W/m 12,3 C 20,6 C 4,8 km/h (1 Bft) 100,00 %
09.08.2020 00:48 27,6 C 20,6 C 45 % 59 % 1019,0 hPa 0,0 l/m 1,6 km/h (1 Bft) O 90 0 min 0,000 mm 0,0 UV-I 0 W/m 12,3 C 20,6 C 3,2 km/h (1 Bft) 100,00 %
09.08.2020 00:47 27,6 C 20,7 C 45 % 59 % 1019,0 hPa 0,0 l/m 1,6 km/h (1 Bft) O 90 0 min 0,000 mm 0,0 UV-I 0 W/m 12,4 C 20,7 C 4,8 km/h (1 Bft) 95,65 %
09.08.2020 00:46 27,7 C 20,7 C 45 % 59 % 1018,9 hPa 0,0 l/m 1,6 km/h (1 Bft) O 90 0 min 0,000 mm 0,0 UV-I 0 W/m 12,4 C 20,7 C 3,2 km/h (1 Bft) 91,30 %
09.08.2020 00:45 27,7 C 20,7 C 45 % 59 % 1018,9 hPa 0,0 l/m 3,2 km/h (1 Bft) O 90 0 min 0,000 mm 0,0 UV-I 0 W/m 12,4 C 20,7 C 4,8 km/h (1 Bft) 100,00 %
09.08.2020 00:44 27,7 C 20,7 C 45 % 59 % 1019,0 hPa 0,0 l/m 1,6 km/h (1 Bft) O 90 0 min 0,000 mm 0,0 UV-I 0 W/m 12,4 C 20,7 C 3,2 km/h (1 Bft) 95,65 %
09.08.2020 00:43 27,6 C 20,7 C 45 % 59 % 1019,0 hPa 0,0 l/m 3,2 km/h (1 Bft) O 90 0 min 0,000 mm 0,0 UV-I 0 W/m 12,4 C 20,7 C 3,2 km/h (1 Bft) 100,00 %
09.08.2020 00:42 27,6 C 20,7 C 45 % 59 % 1019,0 hPa 0,0 l/m 3,2 km/h (1 Bft) O 90 0 min 0,000 mm 0,0 UV-I 0 W/m 12,4 C 20,7 C 3,2 km/h (1 Bft) 100,00 %
09.08.2020 00:41 27,7 C 20,7 C 45 % 58 % 1019,0 hPa 0,0 l/m 3,2 km/h (1 Bft) O 90 0 min 0,000 mm 0,0 UV-I 0 W/m 12,1 C 20,7 C 4,8 km/h (1 Bft) 100,00 %
09.08.2020 00:40 27,7 C 20,8 C 45 % 59 % 1019,0 hPa 0,0 l/m 3,2 km/h (1 Bft) O 90 0 min 0,000 mm 0,0 UV-I 0 W/m 12,5 C 20,8 C 4,8 km/h (1 Bft) 95,65 %
09.08.2020 00:39 27,7 C 20,8 C 45 % 59 % 1019,0 hPa 0,0 l/m 3,2 km/h (1 Bft) O 90 0 min 0,000 mm 0,0 UV-I 0 W/m 12,5 C 20,8 C 4,8 km/h (1 Bft) 100,00 %
09.08.2020 00:38 27,7 C 20,8 C 45 % 58 % 1019,0 hPa 0,0 l/m 3,2 km/h (1 Bft) O 90 0 min 0,000 mm 0,0 UV-I 0 W/m 12,2 C 20,8 C 4,8 km/h (1 Bft) 100,00 %
09.08.2020 00:37 27,7 C 20,8 C 45 % 58 % 1019,0 hPa 0,0 l/m 3,2 km/h (1 Bft) O-SO 112 0 min 0,000 mm 0,0 UV-I 0 W/m 12,2 C 20,8 C 4,8 km/h (1 Bft) 91,30 %
09.08.2020 00:36 27,7 C 20,8 C 45 % 58 % 1019,0 hPa 0,0 l/m 3,2 km/h (1 Bft) O-SO 112 0 min 0,000 mm 0,0 UV-I 0 W/m 12,2 C 20,8 C 3,2 km/h (1 Bft) 100,00 %
09.08.2020 00:35 27,7 C 20,8 C 45 % 58 % 1019,0 hPa 0,0 l/m 1,6 km/h (1 Bft) O-SO 112 0 min 0,000 mm 0,0 UV-I 0 W/m 12,2 C 20,8 C 3,2 km/h (1 Bft) 100,00 %
09.08.2020 00:34 27,7 C 20,9 C 45 % 58 % 1019,0 hPa 0,0 l/m 1,6 km/h (1 Bft) O-SO 112 0 min 0,000 mm 0,0 UV-I 0 W/m 12,3 C 20,9 C 3,2 km/h (1 Bft) 95,65 %
09.08.2020 00:33 27,7 C 20,9 C 45 % 58 % 1019,0 hPa 0,0 l/m 1,6 km/h (1 Bft) O-SO 112 0 min 0,000 mm 0,0 UV-I 0 W/m 12,3 C 20,9 C 3,2 km/h (1 Bft) 100,00 %
09.08.2020 00:32 27,7 C 21,0 C 45 % 58 % 1019,0 hPa 0,0 l/m 1,6 km/h (1 Bft) O-SO 112 0 min 0,000 mm 0,0 UV-I 0 W/m 12,4 C 21,0 C 3,2 km/h (1 Bft) 100,00 %
09.08.2020 00:31 27,7 C 21,0 C 45 % 58 % 1019,0 hPa 0,0 l/m 1,6 km/h (1 Bft) O-SO 112 0 min 0,000 mm 0,0 UV-I 0 W/m 12,4 C 21,0 C 3,2 km/h (1 Bft) 100,00 %
09.08.2020 00:30 27,7 C 21,1 C 45 % 58 % 1019,0 hPa 0,0 l/m 3,2 km/h (1 Bft) O-SO 112 0 min 0,000 mm 0,0 UV-I 0 W/m 12,5 C 21,1 C 3,2 km/h (1 Bft) 95,65 %
09.08.2020 00:29 27,7 C 21,1 C 45 % 58 % 1019,0 hPa 0,0 l/m 1,6 km/h (1 Bft) O-SO 112 0 min 0,000 mm 0,0 UV-I 0 W/m 12,5 C 21,1 C 3,2 km/h (1 Bft) 100,00 %
09.08.2020 00:28 27,7 C 21,1 C 45 % 57 % 1019,0 hPa 0,0 l/m 1,6 km/h (1 Bft) O-SO 112 0 min 0,000 mm 0,0 UV-I 0 W/m 12,2 C 21,1 C 3,2 km/h (1 Bft) 100,00 %
09.08.2020 00:27 27,7 C 21,1 C 45 % 57 % 1019,0 hPa 0,0 l/m 1,6 km/h (1 Bft) O-SO 112 0 min 0,000 mm 0,0 UV-I 0 W/m 12,2 C 21,1 C 3,2 km/h (1 Bft) 100,00 %
09.08.2020 00:26 27,7 C 21,1 C 44 % 57 % 1019,0 hPa 0,0 l/m 1,6 km/h (1 Bft) O-SO 112 0 min 0,000 mm 0,0 UV-I 0 W/m 12,2 C 21,1 C 3,2 km/h (1 Bft) 100,00 %
09.08.2020 00:25 27,7 C 21,1 C 45 % 57 % 1019,0 hPa 0,0 l/m 1,6 km/h (1 Bft) O-SO 112 0 min 0,000 mm 0,0 UV-I 0 W/m 12,2 C 21,1 C 3,2 km/h (1 Bft) 95,65 %
09.08.2020 00:24 27,7 C 21,2 C 44 % 57 % 1019,0 hPa 0,0 l/m 1,6 km/h (1 Bft) O-SO 112 0 min 0,000 mm 0,0 UV-I 0 W/m 12,3 C 21,2 C 3,2 km/h (1 Bft) 100,00 %
09.08.2020 00:23 27,7 C 21,2 C 45 % 57 % 1019,0 hPa 0,0 l/m 1,6 km/h (1 Bft) O-SO 112 0 min 0,000 mm 0,0 UV-I 0 W/m 12,3 C 21,2 C 3,2 km/h (1 Bft) 100,00 %
09.08.2020 00:22 27,7 C 21,2 C 44 % 57 % 1019,0 hPa 0,0 l/m 1,6 km/h (1 Bft) O-SO 112 0 min 0,000 mm 0,0 UV-I 0 W/m 12,3 C 21,2 C 3,2 km/h (1 Bft) 100,00 %
09.08.2020 00:21 27,8 C 21,2 C 44 % 57 % 1018,9 hPa 0,0 l/m 1,6 km/h (1 Bft) O-SO 112 0 min 0,000 mm 0,0 UV-I 0 W/m 12,3 C 21,2 C 3,2 km/h (1 Bft) 100,00 %
09.08.2020 00:20 27,7 C 21,2 C 44 % 57 % 1019,0 hPa 0,0 l/m 1,6 km/h (1 Bft) O-SO 112 0 min 0,000 mm 0,0 UV-I 0 W/m 12,3 C 21,2 C 3,2 km/h (1 Bft) 100,00 %
09.08.2020 00:19 27,7 C 21,2 C 44 % 57 % 1019,1 hPa 0,0 l/m 1,6 km/h (1 Bft) O-SO 112 0 min 0,000 mm 0,0 UV-I 0 W/m 12,3 C 21,2 C 3,2 km/h (1 Bft) 100,00 %
09.08.2020 00:18 27,8 C 21,2 C 44 % 57 % 1019,0 hPa 0,0 l/m 1,6 km/h (1 Bft) O-SO 112 0 min 0,000 mm 0,0 UV-I 0 W/m 12,3 C 21,2 C 3,2 km/h (1 Bft) 95,65 %
09.08.2020 00:17 27,8 C 21,2 C 44 % 57 % 1019,0 hPa 0,0 l/m 1,6 km/h (1 Bft) O-SO 112 0 min 0,000 mm 0,0 UV-I 0 W/m 12,3 C 21,2 C 3,2 km/h (1 Bft) 100,00 %
09.08.2020 00:16 27,8 C 21,1 C 44 % 57 % 1019,0 hPa 0,0 l/m 1,6 km/h (1 Bft) O-SO 112 0 min 0,000 mm 0,0 UV-I 0 W/m 12,2 C 21,1 C 3,2 km/h (1 Bft) 100,00 %
09.08.2020 00:15 27,8 C 21,1 C 44 % 57 % 1019,1 hPa 0,0 l/m 1,6 km/h (1 Bft) O-SO 112 0 min 0,000 mm 0,0 UV-I 0 W/m 12,2 C 21,1 C 1,6 km/h (1 Bft) 91,30 %
09.08.2020 00:14 27,8 C 21,1 C 44 % 57 % 1019,0 hPa 0,0 l/m 1,6 km/h (1 Bft) O-SO 112 0 min 0,000 mm 0,0 UV-I 0 W/m 12,2 C 21,1 C 1,6 km/h (1 Bft) 100,00 %
09.08.2020 00:13 27,8 C 21,0 C 44 % 57 % 1018,9 hPa 0,0 l/m 0,0 km/h (0 Bft) O-SO 112 0 min 0,000 mm 0,0 UV-I 0 W/m 12,1 C 21,0 C 1,6 km/h (1 Bft) 100,00 %
09.08.2020 00:12 27,8 C 20,9 C 44 % 57 % 1019,0 hPa 0,0 l/m 1,6 km/h (1 Bft) O-SO 112 0 min 0,000 mm 0,0 UV-I 0 W/m 12,1 C 20,9 C 1,6 km/h (1 Bft) 100,00 %
09.08.2020 00:11 27,8 C 20,8 C 44 % 58 % 1019,0 hPa 0,0 l/m 0,0 km/h (0 Bft) O-SO 112 0 min 0,000 mm 0,0 UV-I 0 W/m 12,2 C 20,8 C 1,6 km/h (1 Bft) 100,00 %
09.08.2020 00:10 27,8 C 20,8 C 44 % 58 % 1019,1 hPa 0,0 l/m 1,6 km/h (1 Bft) O-SO 112 0 min 0,000 mm 0,0 UV-I 0 W/m 12,2 C 20,8 C 1,6 km/h (1 Bft) 95,65 %
09.08.2020 00:09 27,8 C 20,7 C 44 % 58 % 1019,0 hPa 0,0 l/m 1,6 km/h (1 Bft) O-SO 112 0 min 0,000 mm 0,0 UV-I 0 W/m 12,1 C 20,7 C 3,2 km/h (1 Bft) 100,00 %
09.08.2020 00:08 27,9 C 20,7 C 44 % 59 % 1019,0 hPa 0,0 l/m 1,6 km/h (1 Bft) O-SO 112 0 min 0,000 mm 0,0 UV-I 0 W/m 12,4 C 20,7 C 3,2 km/h (1 Bft) 100,00 %
09.08.2020 00:07 27,9 C 20,7 C 44 % 59 % 1019,0 hPa 0,0 l/m 0,0 km/h (0 Bft) O-SO 112 0 min 0,000 mm 0,0 UV-I 0 W/m 12,4 C 20,7 C 1,6 km/h (1 Bft) 100,00 %
09.08.2020 00:06 27,9 C 20,7 C 44 % 59 % 1019,0 hPa 0,0 l/m 1,6 km/h (1 Bft) O-SO 112 0 min 0,000 mm 0,0 UV-I 0 W/m 12,4 C 20,7 C 1,6 km/h (1 Bft) 100,00 %
09.08.2020 00:05 27,9 C 20,8 C 44 % 58 % 1019,0 hPa 0,0 l/m 0,0 km/h (0 Bft) N 0 0 min 0,000 mm 0,0 UV-I 0 W/m 12,2 C 20,8 C 0,0 km/h (0 Bft) 100,00 %
09.08.2020 00:04 27,9 C 20,8 C 44 % 58 % 1019,0 hPa 0,0 l/m 0,0 km/h (0 Bft) N 0 0 min 0,000 mm 0,0 UV-I 0 W/m 12,2 C 20,8 C 0,0 km/h (0 Bft) 95,65 %
09.08.2020 00:03 27,9 C 20,9 C 44 % 59 % 1019,0 hPa 0,0 l/m 0,0 km/h (0 Bft) O-SO 112 0 min 0,000 mm 0,0 UV-I 0 W/m 12,6 C 20,9 C 1,6 km/h (1 Bft) 100,00 %
09.08.2020 00:02 27,9 C 20,9 C 44 % 59 % 1019,0 hPa 0,0 l/m 0,0 km/h (0 Bft) O-SO 112 0 min 0,000 mm 0,0 UV-I 0 W/m 12,6 C 20,9 C 1,6 km/h (1 Bft) 100,00 %
09.08.2020 00:01 27,9 C 21,1 C 44 % 58 % 1018,9 hPa 0,0 l/m 0,0 km/h (0 Bft) O-SO 112 0 min 0,000 mm 0,0 UV-I 0 W/m 12,5 C 21,1 C 1,6 km/h (1 Bft) 91,30 %
09.08.2020 00:00 27,9 C 21,2 C 44 % 58 % 1019,0 hPa 0,0 l/m 0,0 km/h (0 Bft) O-SO 112 0 min 0,051 mm 0,0 UV-I 0 W/m 12,6 C 21,2 C 1,6 km/h (1 Bft) 100,00 %
_ Min-Zeit 06:11 05:03 00:00 02:19 04:51 - 00:00 - - - - - - 02:19 05:03 00:04 00:01
Minimum _ 26,7 C 19,6 C 44 % 55 % 1018,0 hPa - 0,0 km/h (0 Bft) - - - - - - 11,4 C 19,6 C 0,0 km/h (0 Bft) 91,30 %
_ Max-Zeit 00:00 10:46 10:38 07:28 00:10 00:00 08:17 - - 07:43 10:00 10:45 10:46 10:24 10:46 09:54 00:00
Maximum _ 27,9 C 24,3 C 48 % 66 % 1019,1 hPa 0,0 l/m 4,8 km/h
S-SO (1 Bft)
- - 1 min 0,279 mm 4,5 UV-I 703 W/m 16,9 C 24,3 C 11,3 km/h
S-SW (2 Bft)
100,00 %
Durchschnitt _ 27,1 C 21,0 C 46 % 60 % 1018,4 hPa #0,0 l/m 1,7 km/h (1 Bft) O-SO - #3:03 h #0,915 mm 2,2 UV-I 280 W/m 12,9 C 21,0 C 3,3 km/h (1 Bft) 99,10 %